Wetterdaten: Donnerstag, 07.11.2013
Datum Zeit Temp. Aussen +5cm Feuchte Auss Luftdruck Regen Sonnenschein Regendauer UV Solar Windben
07.11.2013 00:00 13,8 C 11,7 C 90 % 1002,2 hPa 0,0 l/m 0 min 0 min 0,0 UV-I 0 W/m 20,6 km/h (4 Bft)
07.11.2013 00:02 13,8 C 11,7 C 90 % 1002,1 hPa 0,0 l/m 0 min 0 min 0,0 UV-I 0 W/m 25,7 km/h (4 Bft)
07.11.2013 00:06 13,9 C 11,7 C 89 % 1002,3 hPa 0,0 l/m 0 min 0 min 0,0 UV-I 0 W/m 20,6 km/h (4 Bft)
07.11.2013 00:08 13,9 C 11,7 C 89 % 1002,2 hPa 0,0 l/m 0 min 0 min 0,0 UV-I 0 W/m 23,2 km/h (4 Bft)
07.11.2013 00:10 13,9 C 11,7 C 89 % 1002,3 hPa 0,0 l/m 0 min 0 min 0,0 UV-I 0 W/m 12,9 km/h (3 Bft)
07.11.2013 00:12 13,9 C 11,7 C 89 % 1002,1 hPa 0,0 l/m 0 min 0 min 0,0 UV-I 0 W/m 30,9 km/h (5 Bft)
07.11.2013 00:14 13,9 C 11,7 C 89 % 1002,2 hPa 0,0 l/m 0 min 0 min 0,0 UV-I 0 W/m 18,0 km/h (3 Bft)
07.11.2013 00:16 14,0 C 11,7 C 89 % 1002,3 hPa 0,0 l/m 0 min 0 min 0,0 UV-I 0 W/m 18,0 km/h (3 Bft)
07.11.2013 00:18 14,0 C 11,7 C 89 % 1002,2 hPa 0,0 l/m 0 min 0 min 0,0 UV-I 0 W/m 12,9 km/h (3 Bft)
07.11.2013 00:20 14,0 C 11,7 C 89 % 1002,2 hPa 0,0 l/m 0 min 0 min 0,0 UV-I 0 W/m 18,0 km/h (3 Bft)
07.11.2013 00:22 14,0 C 11,7 C 89 % 1002,4 hPa 0,0 l/m 0 min 0 min 0,0 UV-I 0 W/m 25,7 km/h (4 Bft)
07.11.2013 00:24 14,1 C 11,7 C 89 % 1002,3 hPa 0,0 l/m 0 min 0 min 0,0 UV-I 0 W/m 20,6 km/h (4 Bft)
07.11.2013 00:26 14,1 C 11,7 C 88 % 1002,4 hPa 0,0 l/m 0 min 0 min 0,0 UV-I 0 W/m 18,0 km/h (3 Bft)
07.11.2013 00:28 14,2 C 11,7 C 88 % 1002,2 hPa 0,0 l/m 0 min 0 min 0,0 UV-I 0 W/m 15,4 km/h (3 Bft)
07.11.2013 00:30 14,2 C 11,7 C 88 % 1002,3 hPa 0,0 l/m 0 min 0 min 0,0 UV-I 0 W/m 15,4 km/h (3 Bft)
07.11.2013 00:32 14,2 C 11,7 C 88 % 1002,3 hPa 0,0 l/m 0 min 0 min 0,0 UV-I 0 W/m 23,2 km/h (4 Bft)
07.11.2013 00:34 14,2 C 11,7 C 88 % 1002,4 hPa 0,0 l/m 0 min 0 min 0,0 UV-I 0 W/m 30,9 km/h (5 Bft)
07.11.2013 00:36 14,2 C 11,7 C 88 % 1002,3 hPa 0,0 l/m 0 min 0 min 0,0 UV-I 0 W/m 12,9 km/h (3 Bft)
07.11.2013 00:38 14,2 C 11,7 C 88 % 1002,3 hPa 0,0 l/m 0 min 0 min 0,0 UV-I 0 W/m 28,3 km/h (4 Bft)
07.11.2013 00:40 14,2 C 11,7 C 88 % 1002,2 hPa 0,0 l/m 0 min 0 min 0,0 UV-I 0 W/m 12,9 km/h (3 Bft)
07.11.2013 00:42 14,2 C 11,7 C 88 % 1002,5 hPa 0,0 l/m 0 min 0 min 0,0 UV-I 0 W/m 23,2 km/h (4 Bft)
07.11.2013 00:44 14,2 C 11,7 C 88 % 1002,3 hPa 0,0 l/m 0 min 0 min 0,0 UV-I 0 W/m 25,7 km/h (4 Bft)
07.11.2013 00:46 14,2 C 12,2 C 88 % 1002,4 hPa 0,0 l/m 0 min 0 min 0,0 UV-I 0 W/m 15,4 km/h (3 Bft)
07.11.2013 00:48 14,2 C 12,2 C 88 % 1002,3 hPa 0,0 l/m 0 min 0 min 0,0 UV-I 0 W/m 12,9 km/h (3 Bft)
07.11.2013 00:50 14,2 C 12,2 C 88 % 1002,4 hPa 0,0 l/m 0 min 0 min 0,0 UV-I 0 W/m 18,0 km/h (3 Bft)
07.11.2013 00:52 14,2 C 12,2 C 88 % 1002,3 hPa 0,0 l/m 0 min 0 min 0,0 UV-I 0 W/m 23,2 km/h (4 Bft)
07.11.2013 00:54 14,2 C 12,2 C 88 % 1002,3 hPa 0,0 l/m 0 min 0 min 0,0 UV-I 0 W/m 23,2 km/h (4 Bft)
07.11.2013 00:56 14,2 C 12,2 C 88 % 1002,4 hPa 0,0 l/m 0 min 0 min 0,0 UV-I 0 W/m 18,0 km/h (3 Bft)
07.11.2013 00:58 14,2 C 12,8 C 87 % 1002,3 hPa 0,0 l/m 0 min 0 min 0,0 UV-I 0 W/m 15,4 km/h (3 Bft)
07.11.2013 01:00 14,3 C 12,8 C 88 % 1002,5 hPa 0,0 l/m 0 min 0 min 0,0 UV-I 0 W/m 23,2 km/h (4 Bft)
07.11.2013 01:02 14,3 C 12,8 C 87 % 1002,5 hPa 0,0 l/m 0 min 0 min 0,0 UV-I 0 W/m 25,7 km/h (4 Bft)
07.11.2013 01:04 14,3 C 12,8 C 87 % 1002,4 hPa 0,0 l/m 0 min 0 min 0,0 UV-I 0 W/m 12,9 km/h (3 Bft)
07.11.2013 01:06 14,3 C 12,8 C 87 % 1002,5 hPa 0,0 l/m 0 min 0 min 0,0 UV-I 0 W/m 28,3 km/h (4 Bft)
07.11.2013 01:08 14,4 C 12,8 C 87 % 1002,4 hPa 0,0 l/m 0 min 0 min 0,0 UV-I 0 W/m 33,5 km/h (5 Bft)
07.11.2013 01:10 14,4 C 12,8 C 87 % 1002,4 hPa 0,0 l/m 0 min 0 min 0,0 UV-I 0 W/m 12,9 km/h (3 Bft)
07.11.2013 01:12 14,4 C 12,8 C 87 % 1002,4 hPa 0,0 l/m 0 min 0 min 0,0 UV-I 0 W/m 15,4 km/h (3 Bft)
07.11.2013 01:14 14,4 C 12,8 C 87 % 1002,4 hPa 0,0 l/m 0 min 0 min 0,0 UV-I 0 W/m 28,3 km/h (4 Bft)
07.11.2013 01:16 14,4 C 12,8 C 87 % 1002,4 hPa 0,0 l/m 0 min 0 min 0,0 UV-I 0 W/m 23,2 km/h (4 Bft)
07.11.2013 01:18 14,4 C 12,8 C 87 % 1002,6 hPa 0,0 l/m 0 min 0 min 0,0 UV-I 0 W/m 18,0 km/h (3 Bft)
07.11.2013 01:20 14,4 C 12,8 C 87 % 1002,4 hPa 0,0 l/m 0 min 0 min 0,0 UV-I 0 W/m 12,9 km/h (3 Bft)
07.11.2013 01:22 14,4 C 12,8 C 87 % 1002,4 hPa 0,0 l/m 0 min 0 min 0,0 UV-I 0 W/m 36,0 km/h (5 Bft)
07.11.2013 01:24 14,4 C 12,8 C 87 % 1002,5 hPa 0,0 l/m 0 min 0 min 0,0 UV-I 0 W/m 25,7 km/h (4 Bft)
07.11.2013 01:26 14,5 C 12,8 C 87 % 1002,5 hPa 0,0 l/m 0 min 0 min 0,0 UV-I 0 W/m 20,6 km/h (4 Bft)
07.11.2013 01:28 14,5 C 12,8 C 87 % 1002,4 hPa 0,0 l/m 0 min 0 min 0,0 UV-I 0 W/m 20,6 km/h (4 Bft)
07.11.2013 01:30 14,5 C 12,8 C 87 % 1002,5 hPa 0,0 l/m 0 min 0 min 0,0 UV-I 0 W/m 12,9 km/h (3 Bft)
07.11.2013 01:32 14,5 C 12,8 C 87 % 1002,5 hPa 0,0 l/m 0 min 0 min 0,0 UV-I 0 W/m 18,0 km/h (3 Bft)
07.11.2013 01:34 14,5 C 12,8 C 87 % 1002,5 hPa 0,0 l/m 0 min 0 min 0,0 UV-I 0 W/m 25,7 km/h (4 Bft)
07.11.2013 01:36 14,5 C 12,8 C 87 % 1002,5 hPa 0,0 l/m 0 min 0 min 0,0 UV-I 0 W/m 36,0 km/h (5 Bft)
07.11.2013 01:38 14,5 C 12,8 C 87 % 1002,5 hPa 0,0 l/m 0 min 0 min 0,0 UV-I 0 W/m 12,9 km/h (3 Bft)
07.11.2013 01:40 14,6 C 12,8 C 87 % 1002,3 hPa 0,0 l/m 0 min 0 min 0,0 UV-I 0 W/m 46,3 km/h (6 Bft)
07.11.2013 01:42 14,6 C 12,8 C 87 % 1002,4 hPa 0,0 l/m 0 min 0 min 0,0 UV-I 0 W/m 23,2 km/h (4 Bft)
07.11.2013 01:44 14,6 C 12,8 C 87 % 1002,3 hPa 0,0 l/m 0 min 0 min 0,0 UV-I 0 W/m 25,7 km/h (4 Bft)
07.11.2013 01:46 14,6 C 12,8 C 87 % 1002,3 hPa 0,0 l/m 0 min 0 min 0,0 UV-I 0 W/m 25,7 km/h (4 Bft)
07.11.2013 01:48 14,6 C 12,8 C 86 % 1002,3 hPa 0,0 l/m 0 min 0 min 0,0 UV-I 0 W/m 23,2 km/h (4 Bft)
07.11.2013 01:50 14,6 C 12,8 C 86 % 1002,4 hPa 0,0 l/m 0 min 0 min 0,0 UV-I 0 W/m 36,0 km/h (5 Bft)
07.11.2013 01:52 14,6 C 12,8 C 86 % 1002,4 hPa 0,0 l/m 0 min 0 min 0,0 UV-I 0 W/m 28,3 km/h (4 Bft)
07.11.2013 01:54 14,6 C 12,8 C 86 % 1002,4 hPa 0,0 l/m 0 min 0 min 0,0 UV-I 0 W/m 23,2 km/h (4 Bft)
07.11.2013 01:56 14,6 C 12,8 C 86 % 1002,4 hPa 0,0 l/m 0 min 0 min 0,0 UV-I 0 W/m 28,3 km/h (4 Bft)
07.11.2013 01:58 14,6 C 12,8 C 86 % 1002,4 hPa 0,0 l/m 0 min 0 min 0,0 UV-I 0 W/m 25,7 km/h (4 Bft)
07.11.2013 02:00 14,6 C 12,8 C 86 % 1002,3 hPa 0,0 l/m 0 min 0 min 0,0 UV-I 0 W/m 23,2 km/h (4 Bft)
07.11.2013 02:02 14,7 C 12,8 C 86 % 1002,4 hPa 0,0 l/m 0 min 0 min 0,0 UV-I 0 W/m 38,6 km/h (5 Bft)
07.11.2013 02:04 14,7 C 12,8 C 86 % 1002,4 hPa 0,0 l/m 0 min 0 min 0,0 UV-I 0 W/m 20,6 km/h (4 Bft)
07.11.2013 02:06 14,7 C 12,8 C 86 % 1002,4 hPa 0,0 l/m 0 min 0 min 0,0 UV-I 0 W/m 18,0 km/h (3 Bft)
07.11.2013 02:08 14,7 C 12,8 C 86 % 1002,4 hPa 0,0 l/m 0 min 0 min 0,0 UV-I 0 W/m 18,0 km/h (3 Bft)
07.11.2013 02:10 14,7 C 12,8 C 86 % 1002,5 hPa 0,0 l/m 0 min 0 min 0,0 UV-I 0 W/m 15,4 km/h (3 Bft)
07.11.2013 02:12 14,6 C 12,8 C 87 % 1002,4 hPa 0,0 l/m 0 min 0 min 0,0 UV-I 0 W/m 20,6 km/h (4 Bft)
07.11.2013 02:14 14,6 C 12,8 C 87 % 1002,4 hPa 0,0 l/m 0 min 0 min 0,0 UV-I 0 W/m 12,9 km/h (3 Bft)
07.11.2013 02:16 14,6 C 12,8 C 87 % 1002,3 hPa 0,0 l/m 0 min 0 min 0,0 UV-I 0 W/m 28,3 km/h (4 Bft)
07.11.2013 02:18 14,6 C 12,8 C 87 % 1002,5 hPa 0,0 l/m 0 min 0 min 0,0 UV-I 0 W/m 12,9 km/h (3 Bft)
07.11.2013 02:20 14,6 C 12,8 C 87 % 1002,5 hPa 0,0 l/m 0 min 0 min 0,0 UV-I 0 W/m 25,7 km/h (4 Bft)
07.11.2013 02:22 14,5 C 12,8 C 87 % 1002,4 hPa 0,0 l/m 0 min 0 min 0,0 UV-I 0 W/m 25,7 km/h (4 Bft)
07.11.2013 02:24 14,5 C 12,8 C 87 % 1002,4 hPa 0,0 l/m 0 min 0 min 0,0 UV-I 0 W/m 36,0 km/h (5 Bft)
07.11.2013 02:26 14,5 C 12,8 C 87 % 1002,4 hPa 0,0 l/m 0 min 0 min 0,0 UV-I 0 W/m 18,0 km/h (3 Bft)
07.11.2013 02:28 14,4 C 12,8 C 87 % 1002,3 hPa 0,0 l/m 0 min 0 min 0,0 UV-I 0 W/m 23,2 km/h (4 Bft)
07.11.2013 02:30 14,4 C 12,8 C 87 % 1002,4 hPa 0,0 l/m 0 min 0 min 0,0 UV-I 0 W/m 25,7 km/h (4 Bft)
07.11.2013 02:32 14,4 C 12,8 C 87 % 1002,4 hPa 0,0 l/m 0 min 0 min 0,0 UV-I 0 W/m 10,3 km/h (2 Bft)
07.11.2013 02:34 14,4 C 12,8 C 87 % 1002,4 hPa 0,0 l/m 0 min 0 min 0,0 UV-I 0 W/m 23,2 km/h (4 Bft)
07.11.2013 02:36 14,4 C 12,8 C 87 % 1002,3 hPa 0,0 l/m 0 min 0 min 0,0 UV-I 0 W/m 25,7 km/h (4 Bft)
07.11.2013 02:38 14,4 C 12,8 C 87 % 1002,5 hPa 0,0 l/m 0 min 0 min 0,0 UV-I 0 W/m 30,9 km/h (5 Bft)
07.11.2013 02:40 14,4 C 12,8 C 87 % 1002,0 hPa 0,0 l/m 0 min 0 min 0,0 UV-I 0 W/m 25,7 km/h (4 Bft)
07.11.2013 02:42 14,4 C 12,8 C 86 % 1002,1 hPa 0,0 l/m 0 min 0 min 0,0 UV-I 0 W/m 23,2 km/h (4 Bft)
07.11.2013 02:44 14,4 C 12,8 C 86 % 1002,1 hPa 0,0 l/m 0 min 0 min 0,0 UV-I 0 W/m 15,4 km/h (3 Bft)
07.11.2013 02:46 14,4 C 12,8 C 86 % 1002,1 hPa 0,0 l/m 0 min 0 min 0,0 UV-I 0 W/m 25,7 km/h (4 Bft)
07.11.2013 02:48 14,4 C 12,8 C 86 % 1002,3 hPa 0,0 l/m 0 min 0 min 0,0 UV-I 0 W/m 28,3 km/h (4 Bft)
07.11.2013 02:50 14,4 C 12,8 C 86 % 1002,1 hPa 0,0 l/m 0 min 0 min 0,0 UV-I 0 W/m 10,3 km/h (2 Bft)
07.11.2013 02:52 14,4 C 12,8 C 86 % 1002,2 hPa 0,0 l/m 0 min 0 min 0,0 UV-I 0 W/m 12,9 km/h (3 Bft)
07.11.2013 02:54 14,4 C 12,8 C 86 % 1002,3 hPa 0,0 l/m 0 min 0 min 0,0 UV-I 0 W/m 33,5 km/h (5 Bft)
07.11.2013 02:56 14,5 C 12,8 C 86 % 1002,2 hPa 0,0 l/m 0 min 0 min 0,0 UV-I 0 W/m 38,6 km/h (5 Bft)
07.11.2013 02:58 14,5 C 12,8 C 86 % 1002,4 hPa 0,0 l/m 0 min 0 min 0,0 UV-I 0 W/m 23,2 km/h (4 Bft)
07.11.2013 03:00 14,5 C 12,8 C 86 % 1002,2 hPa 0,0 l/m 0 min 0 min 0,0 UV-I 0 W/m 25,7 km/h (4 Bft)
07.11.2013 03:02 14,6 C 12,8 C 86 % 1002,4 hPa 0,0 l/m 0 min 0 min 0,0 UV-I 0 W/m 10,3 km/h (2 Bft)
07.11.2013 03:04 14,6 C 12,8 C 86 % 1002,4 hPa 0,0 l/m 0 min 0 min 0,0 UV-I 0 W/m 43,8 km/h (6 Bft)
07.11.2013 03:06 14,6 C 12,8 C 86 % 1002,2 hPa 0,0 l/m 0 min 0 min 0,0 UV-I 0 W/m 23,2 km/h (4 Bft)
07.11.2013 03:08 14,6 C 12,8 C 86 % 1002,4 hPa 0,0 l/m 0 min 0 min 0,0 UV-I 0 W/m 30,9 km/h (5 Bft)
07.11.2013 03:10 14,6 C 12,8 C 86 % 1002,3 hPa 0,0 l/m 0 min 0 min 0,0 UV-I 0 W/m 25,7 km/h (4 Bft)
07.11.2013 03:12 14,6 C 12,8 C 86 % 1002,4 hPa 0,0 l/m 0 min 0 min 0,0 UV-I 0 W/m 18,0 km/h (3 Bft)
07.11.2013 03:14 14,6 C 12,8 C 86 % 1002,4 hPa 0,0 l/m 0 min 0 min 0,0 UV-I 0 W/m 25,7 km/h (4 Bft)
07.11.2013 03:16 14,6 C 12,8 C 86 % 1002,3 hPa 0,0 l/m 0 min 0 min 0,0 UV-I 0 W/m 23,2 km/h (4 Bft)
07.11.2013 03:18 14,6 C 12,8 C 86 % 1002,3 hPa 0,0 l/m 0 min 0 min 0,0 UV-I 0 W/m 18,0 km/h (3 Bft)
07.11.2013 03:20 14,7 C 12,8 C 86 % 1002,3 hPa 0,0 l/m 0 min 0 min 0,0 UV-I 0 W/m 36,0 km/h (5 Bft)
07.11.2013 03:22 14,7 C 12,8 C 86 % 1002,4 hPa 0,0 l/m 0 min 0 min 0,0 UV-I 0 W/m 43,8 km/h (6 Bft)
07.11.2013 03:24 14,7 C 12,8 C 86 % 1002,4 hPa 0,0 l/m 0 min 0 min 0,0 UV-I 0 W/m 28,3 km/h (4 Bft)
07.11.2013 03:26 14,7 C 12,8 C 86 % 1002,4 hPa 0,0 l/m 0 min 0 min 0,0 UV-I 0 W/m 18,0 km/h (3 Bft)
07.11.2013 03:28 14,7 C 12,8 C 86 % 1002,3 hPa 0,0 l/m 0 min 0 min 0,0 UV-I 0 W/m 20,6 km/h (4 Bft)
07.11.2013 03:30 14,7 C 12,8 C 86 % 1002,4 hPa 0,0 l/m 0 min 0 min 0,0 UV-I 0 W/m 20,6 km/h (4 Bft)
07.11.2013 03:32 14,7 C 12,8 C 86 % 1002,3 hPa 0,0 l/m 0 min 0 min 0,0 UV-I 0 W/m 25,7 km/h (4 Bft)
07.11.2013 03:34 14,7 C 12,8 C 86 % 1002,3 hPa 0,0 l/m 0 min 0 min 0,0 UV-I 0 W/m 36,0 km/h (5 Bft)
07.11.2013 03:36 14,7 C 12,8 C 86 % 1002,3 hPa 0,0 l/m 0 min 0 min 0,0 UV-I 0 W/m 18,0 km/h (3 Bft)
07.11.2013 03:38 14,7 C 12,8 C 86 % 1002,4 hPa 0,0 l/m 0 min 0 min 0,0 UV-I 0 W/m 33,5 km/h (5 Bft)
07.11.2013 03:40 14,7 C 12,8 C 86 % 1002,3 hPa 0,0 l/m 0 min 0 min 0,0 UV-I 0 W/m 23,2 km/h (4 Bft)
07.11.2013 03:42 14,7 C 12,8 C 86 % 1002,4 hPa 0,0 l/m 0 min 0 min 0,0 UV-I 0 W/m 20,6 km/h (4 Bft)
07.11.2013 03:44 14,7 C 12,8 C 86 % 1002,4 hPa 0,0 l/m 0 min 0 min 0,0 UV-I 0 W/m 12,9 km/h (3 Bft)
07.11.2013 03:46 14,7 C 12,8 C 87 % 1002,4 hPa 0,0 l/m 0 min 0 min 0,0 UV-I 0 W/m 18,0 km/h (3 Bft)
07.11.2013 03:48 14,7 C 12,8 C 87 % 1002,4 hPa 0,0 l/m 0 min 0 min 0,0 UV-I 0 W/m 28,3 km/h (4 Bft)
07.11.2013 03:50 14,6 C 12,8 C 87 % 1002,5 hPa 0,0 l/m 0 min 0 min 0,0 UV-I 0 W/m 18,0 km/h (3 Bft)
07.11.2013 03:52 14,7 C 12,8 C 87 % 1002,4 hPa 0,0 l/m 0 min 0 min 0,0 UV-I 0 W/m 23,2 km/h (4 Bft)
07.11.2013 03:54 14,6 C 12,8 C 87 % 1002,3 hPa 0,0 l/m 0 min 0 min 0,0 UV-I 0 W/m 15,4 km/h (3 Bft)
07.11.2013 03:56 14,6 C 12,8 C 87 % 1002,4 hPa 0,0 l/m 0 min 0 min 0,0 UV-I 0 W/m 15,4 km/h (3 Bft)
07.11.2013 03:58 14,6 C 12,8 C 87 % 1002,2 hPa 0,0 l/m 0 min 0 min 0,0 UV-I 0 W/m 7,7 km/h (2 Bft)
07.11.2013 04:00 14,6 C 12,8 C 87 % 1002,2 hPa 0,0 l/m 0 min 0 min 0,0 UV-I 0 W/m 12,9 km/h (3 Bft)
07.11.2013 04:02 14,6 C 12,8 C 87 % 1002,3 hPa 0,0 l/m 0 min 0 min 0,0 UV-I 0 W/m 12,9 km/h (3 Bft)
07.11.2013 04:04 14,6 C 12,8 C 87 % 1002,4 hPa 0,0 l/m 0 min 0 min 0,0 UV-I 0 W/m 30,9 km/h (5 Bft)
07.11.2013 04:06 14,6 C 12,8 C 87 % 1002,5 hPa 0,0 l/m 0 min 0 min 0,0 UV-I 0 W/m 12,9 km/h (3 Bft)
07.11.2013 04:08 14,6 C 12,8 C 87 % 1002,5 hPa 0,0 l/m 0 min 0 min 0,0 UV-I 0 W/m 28,3 km/h (4 Bft)
07.11.2013 04:10 14,6 C 12,8 C 87 % 1002,4 hPa 0,0 l/m 0 min 0 min 0,0 UV-I 0 W/m 28,3 km/h (4 Bft)
07.11.2013 04:12 14,6 C 12,8 C 87 % 1002,4 hPa 0,0 l/m 0 min 0 min 0,0 UV-I 0 W/m 20,6 km/h (4 Bft)
07.11.2013 04:14 14,6 C 12,8 C 87 % 1002,5 hPa 0,0 l/m 0 min 0 min 0,0 UV-I 0 W/m 23,2 km/h (4 Bft)
07.11.2013 04:16 14,6 C 12,8 C 87 % 1002,4 hPa 0,0 l/m 0 min 0 min 0,0 UV-I 0 W/m 18,0 km/h (3 Bft)
07.11.2013 04:18 14,6 C 12,8 C 87 % 1002,4 hPa 0,0 l/m 0 min 0 min 0,0 UV-I 0 W/m 23,2 km/h (4 Bft)
07.11.2013 04:20 14,6 C 12,8 C 87 % 1002,6 hPa 0,0 l/m 0 min 0 min 0,0 UV-I 0 W/m 23,2 km/h (4 Bft)
07.11.2013 04:22 14,6 C 12,8 C 87 % 1002,4 hPa 0,0 l/m 0 min 0 min 0,0 UV-I 0 W/m 23,2 km/h (4 Bft)
07.11.2013 04:24 14,6 C 12,8 C 88 % 1002,5 hPa 0,0 l/m 0 min 0 min 0,0 UV-I 0 W/m 18,0 km/h (3 Bft)
07.11.2013 04:26 14,6 C 12,8 C 88 % 1002,4 hPa 0,0 l/m 0 min 0 min 0,0 UV-I 0 W/m 20,6 km/h (4 Bft)
07.11.2013 04:28 14,6 C 12,8 C 88 % 1002,5 hPa 0,0 l/m 0 min 0 min 0,0 UV-I 0 W/m 36,0 km/h (5 Bft)
07.11.2013 04:30 14,6 C 12,8 C 88 % 1002,4 hPa 0,0 l/m 0 min 0 min 0,0 UV-I 0 W/m 25,7 km/h (4 Bft)
07.11.2013 04:32 14,7 C 12,8 C 88 % 1002,5 hPa 0,0 l/m 0 min 0 min 0,0 UV-I 0 W/m 23,2 km/h (4 Bft)
07.11.2013 04:34 14,6 C 12,8 C 88 % 1002,4 hPa 0,0 l/m 0 min 0 min 0,0 UV-I 0 W/m 43,8 km/h (6 Bft)
07.11.2013 04:36 14,7 C 12,8 C 88 % 1002,4 hPa 0,0 l/m 0 min 0 min 0,0 UV-I 0 W/m 23,2 km/h (4 Bft)
07.11.2013 04:38 14,7 C 12,8 C 88 % 1002,4 hPa 0,0 l/m 0 min 0 min 0,0 UV-I 0 W/m 23,2 km/h (4 Bft)
07.11.2013 04:40 14,7 C 12,8 C 88 % 1002,5 hPa 0,0 l/m 0 min 0 min 0,0 UV-I 0 W/m 23,2 km/h (4 Bft)
07.11.2013 04:42 14,7 C 12,8 C 88 % 1002,4 hPa 0,0 l/m 0 min 0 min 0,0 UV-I 0 W/m 15,4 km/h (3 Bft)
07.11.2013 04:44 14,7 C 12,8 C 88 % 1002,5 hPa 0,0 l/m 0 min 0 min 0,0 UV-I 0 W/m 12,9 km/h (3 Bft)
07.11.2013 04:46 14,7 C 12,8 C 88 % 1002,4 hPa 0,0 l/m 0 min 0 min 0,0 UV-I 0 W/m 28,3 km/h (4 Bft)
07.11.2013 04:48 14,7 C 12,8 C 88 % 1002,5 hPa 0,0 l/m 0 min 0 min 0,0 UV-I 0 W/m 15,4 km/h (3 Bft)
07.11.2013 04:50 14,7 C 12,8 C 88 % 1002,4 hPa 0,0 l/m 0 min 0 min 0,0 UV-I 0 W/m 30,9 km/h (5 Bft)
07.11.2013 04:52 14,7 C 12,8 C 88 % 1002,4 hPa 0,0 l/m 0 min 0 min 0,0 UV-I 0 W/m 25,7 km/h (4 Bft)
07.11.2013 04:54 14,7 C 12,8 C 88 % 1002,4 hPa 0,0 l/m 0 min 0 min 0,0 UV-I 0 W/m 20,6 km/h (4 Bft)
07.11.2013 04:56 14,6 C 12,8 C 88 % 1002,5 hPa 0,0 l/m 0 min 0 min 0,0 UV-I 0 W/m 28,3 km/h (4 Bft)
07.11.2013 04:58 14,6 C 12,8 C 88 % 1002,6 hPa 0,0 l/m 0 min 0 min 0,0 UV-I 0 W/m 18,0 km/h (3 Bft)
07.11.2013 05:00 14,6 C 12,8 C 88 % 1002,5 hPa 0,0 l/m 0 min 0 min 0,0 UV-I 0 W/m 15,4 km/h (3 Bft)
07.11.2013 05:02 14,6 C 12,8 C 88 % 1002,5 hPa 0,0 l/m 0 min 0 min 0,0 UV-I 0 W/m 23,2 km/h (4 Bft)
07.11.2013 05:04 14,6 C 12,8 C 88 % 1002,9 hPa 0,0 l/m 0 min 0 min 0,0 UV-I 0 W/m 23,2 km/h (4 Bft)
07.11.2013 05:06 14,6 C 12,8 C 89 % 1002,6 hPa 0,0 l/m 0 min 0 min 0,0 UV-I 0 W/m 12,9 km/h (3 Bft)
07.11.2013 05:08 14,6 C 12,8 C 89 % 1002,6 hPa 0,0 l/m 0 min 0 min 0,0 UV-I 0 W/m 20,6 km/h (4 Bft)
07.11.2013 05:10 14,6 C 12,8 C 89 % 1002,7 hPa 0,0 l/m 0 min 0 min 0,0 UV-I 0 W/m 23,2 km/h (4 Bft)
07.11.2013 05:12 14,6 C 12,8 C 89 % 1002,6 hPa 0,0 l/m 0 min 0 min 0,0 UV-I 0 W/m 18,0 km/h (3 Bft)
07.11.2013 05:14 14,6 C 12,8 C 89 % 1002,5 hPa 0,0 l/m 0 min 0 min 0,0 UV-I 0 W/m 18,0 km/h (3 Bft)
07.11.2013 05:16 14,6 C 12,8 C 89 % 1002,5 hPa 0,0 l/m 0 min 0 min 0,0 UV-I 0 W/m 18,0 km/h (3 Bft)
07.11.2013 05:18 14,6 C 12,8 C 89 % 1002,5 hPa 0,0 l/m 0 min 0 min 0,0 UV-I 0 W/m 15,4 km/h (3 Bft)
07.11.2013 05:20 14,5 C 12,8 C 89 % 1002,6 hPa 0,0 l/m 0 min 0 min 0,0 UV-I 0 W/m 12,9 km/h (3 Bft)
07.11.2013 05:22 14,5 C 12,8 C 89 % 1002,6 hPa 0,0 l/m 0 min 0 min 0,0 UV-I 0 W/m 10,3 km/h (2 Bft)
07.11.2013 05:24 14,4 C 12,8 C 89 % 1002,6 hPa 0,0 l/m 0 min 0 min 0,0 UV-I 0 W/m 12,9 km/h (3 Bft)
07.11.2013 05:26 14,4 C 12,8 C 90 % 1002,6 hPa 0,0 l/m 0 min 0 min 0,0 UV-I 0 W/m 18,0 km/h (3 Bft)
07.11.2013 05:28 14,4 C 12,8 C 90 % 1002,7 hPa 0,0 l/m 0 min 0 min 0,0 UV-I 0 W/m 12,9 km/h (3 Bft)
07.11.2013 05:30 14,4 C 12,8 C 90 % 1002,6 hPa 0,0 l/m 0 min 0 min 0,0 UV-I 0 W/m 25,7 km/h (4 Bft)
07.11.2013 05:32 14,4 C 12,8 C 90 % 1002,6 hPa 0,0 l/m 0 min 0 min 0,0 UV-I 0 W/m 10,3 km/h (2 Bft)
07.11.2013 05:34 14,4 C 12,8 C 90 % 1002,7 hPa 0,0 l/m 0 min 0 min 0,0 UV-I 0 W/m 28,3 km/h (4 Bft)
07.11.2013 05:36 14,3 C 12,8 C 90 % 1002,6 hPa 0,0 l/m 0 min 0 min 0,0 UV-I 0 W/m 23,2 km/h (4 Bft)
07.11.2013 05:38 14,3 C 12,8 C 90 % 1002,7 hPa 0,0 l/m 0 min 0 min 0,0 UV-I 0 W/m 23,2 km/h (4 Bft)
07.11.2013 05:40 14,3 C 12,8 C 91 % 1002,9 hPa 0,0 l/m 0 min 0 min 0,0 UV-I 0 W/m 30,9 km/h (5 Bft)
07.11.2013 05:42 14,2 C 12,8 C 91 % 1002,8 hPa 0,0 l/m 0 min 0 min 0,0 UV-I 0 W/m 15,4 km/h (3 Bft)
07.11.2013 05:44 14,2 C 12,8 C 91 % 1002,7 hPa 0,0 l/m 0 min 0 min 0,0 UV-I 0 W/m 18,0 km/h (3 Bft)
07.11.2013 05:46 14,2 C 12,8 C 91 % 1002,7 hPa 0,0 l/m 0 min 0 min 0,0 UV-I 0 W/m 23,2 km/h (4 Bft)
07.11.2013 05:48 14,2 C 12,8 C 91 % 1002,8 hPa 0,0 l/m 0 min 0 min 0,0 UV-I 0 W/m 12,9 km/h (3 Bft)
07.11.2013 05:50 14,2 C 12,8 C 91 % 1002,7 hPa 0,0 l/m 0 min 0 min 0,0 UV-I 0 W/m 18,0 km/h (3 Bft)
07.11.2013 05:52 14,2 C 12,8 C 91 % 1002,8 hPa 0,0 l/m 0 min 0 min 0,0 UV-I 0 W/m 12,9 km/h (3 Bft)
07.11.2013 05:54 14,2 C 12,2 C 91 % 1002,8 hPa 0,0 l/m 0 min 0 min 0,0 UV-I 0 W/m 20,6 km/h (4 Bft)
07.11.2013 05:56 14,2 C 12,2 C 91 % 1002,8 hPa 0,0 l/m 0 min 0 min 0,0 UV-I 0 W/m 18,0 km/h (3 Bft)
07.11.2013 05:58 14,2 C 12,2 C 92 % 1003,1 hPa 0,0 l/m 0 min 0 min 0,0 UV-I 0 W/m 15,4 km/h (3 Bft)
07.11.2013 06:00 14,2 C 12,2 C 92 % 1002,8 hPa 0,0 l/m 0 min 0 min 0,0 UV-I 0 W/m 20,6 km/h (4 Bft)
07.11.2013 06:02 14,2 C 12,8 C 92 % 1002,8 hPa 0,0 l/m 0 min 0 min 0,0 UV-I 0 W/m 18,0 km/h (3 Bft)
07.11.2013 06:06 14,2 C 12,2 C 92 % 1002,9 hPa 0,0 l/m 0 min 0 min 0,0 UV-I 0 W/m 18,0 km/h (3 Bft)
07.11.2013 06:08 14,2 C 12,2 C 92 % 1002,9 hPa 0,0 l/m 0 min 0 min 0,0 UV-I 0 W/m 18,0 km/h (3 Bft)
07.11.2013 06:10 14,2 C 12,2 C 92 % 1002,9 hPa 0,0 l/m 0 min 2 min 0,0 UV-I 0 W/m 15,4 km/h (3 Bft)
07.11.2013 06:12 14,1 C 12,2 C 92 % 1002,9 hPa 0,0 l/m 0 min 0 min 0,0 UV-I 0 W/m 30,9 km/h (5 Bft)
07.11.2013 06:14 14,1 C 12,2 C 92 % 1002,9 hPa 0,0 l/m 0 min 0 min 0,0 UV-I 0 W/m 23,2 km/h (4 Bft)
07.11.2013 06:16 14,1 C 12,2 C 92 % 1003,0 hPa 0,0 l/m 0 min 0 min 0,0 UV-I 0 W/m 20,6 km/h (4 Bft)
07.11.2013 06:18 14,1 C 12,2 C 92 % 1002,9 hPa 0,0 l/m 0 min 0 min 0,0 UV-I 0 W/m 23,2 km/h (4 Bft)
07.11.2013 06:20 14,0 C 12,2 C 92 % 1002,9 hPa 0,0 l/m 0 min 0 min 0,0 UV-I 0 W/m 18,0 km/h (3 Bft)
07.11.2013 06:22 14,0 C 12,2 C 92 % 1002,9 hPa 0,0 l/m 0 min 0 min 0,0 UV-I 0 W/m 10,3 km/h (2 Bft)
07.11.2013 06:24 13,9 C 12,2 C 93 % 1002,9 hPa 0,0 l/m 0 min 0 min 0,0 UV-I 0 W/m 20,6 km/h (4 Bft)
07.11.2013 06:26 13,9 C 12,2 C 93 % 1002,9 hPa 0,0 l/m 0 min 0 min 0,0 UV-I 0 W/m 12,9 km/h (3 Bft)
07.11.2013 06:28 13,9 C 12,2 C 93 % 1002,8 hPa 0,0 l/m 0 min 0 min 0,0 UV-I 0 W/m 18,0 km/h (3 Bft)
07.11.2013 06:30 13,9 C 12,2 C 93 % 1002,9 hPa 0,0 l/m 0 min 0 min 0,0 UV-I 0 W/m 30,9 km/h (5 Bft)
07.11.2013 06:32 13,9 C 12,2 C 93 % 1002,9 hPa 0,0 l/m 0 min 2 min 0,0 UV-I 0 W/m 18,0 km/h (3 Bft)
07.11.2013 06:34 13,8 C 12,2 C 93 % 1002,9 hPa 0,0 l/m 0 min 0 min 0,0 UV-I 0 W/m 10,3 km/h (2 Bft)
07.11.2013 06:36 13,8 C 12,2 C 93 % 1002,9 hPa 0,0 l/m 0 min 0 min 0,0 UV-I 0 W/m 18,0 km/h (3 Bft)
07.11.2013 06:38 13,8 C 12,2 C 93 % 1003,0 hPa 0,0 l/m 0 min 0 min 0,0 UV-I 0 W/m 20,6 km/h (4 Bft)
07.11.2013 06:40 13,8 C 12,2 C 93 % 1002,9 hPa 0,0 l/m 0 min 0 min 0,0 UV-I 0 W/m 10,3 km/h (2 Bft)
07.11.2013 06:42 13,8 C 12,2 C 93 % 1002,9 hPa 0,0 l/m 0 min 0 min 0,0 UV-I 0 W/m 20,6 km/h (4 Bft)
07.11.2013 06:44 13,8 C 12,2 C 93 % 1002,9 hPa 0,0 l/m 0 min 0 min 0,0 UV-I 0 W/m 18,0 km/h (3 Bft)
07.11.2013 06:46 13,8 C 12,2 C 93 % 1003,1 hPa 0,0 l/m 0 min 0 min 0,0 UV-I 0 W/m 23,2 km/h (4 Bft)
07.11.2013 06:48 13,8 C 12,2 C 93 % 1003,0 hPa 0,0 l/m 0 min 0 min 0,0 UV-I 0 W/m 15,4 km/h (3 Bft)
07.11.2013 06:50 13,8 C 12,2 C 94 % 1003,1 hPa 0,0 l/m 0 min 0 min 0,0 UV-I 0 W/m 25,7 km/h (4 Bft)
07.11.2013 06:52 13,8 C 12,2 C 94 % 1003,0 hPa 0,0 l/m 0 min 0 min 0,0 UV-I 0 W/m 23,2 km/h (4 Bft)
07.11.2013 06:54 13,8 C 12,2 C 94 % 1003,0 hPa 0,0 l/m 0 min 0 min 0,0 UV-I 0 W/m 41,2 km/h (6 Bft)
07.11.2013 06:56 13,8 C 12,2 C 94 % 1003,0 hPa 0,0 l/m 0 min 0 min 0,0 UV-I 0 W/m 18,0 km/h (3 Bft)
07.11.2013 06:58 13,8 C 12,2 C 94 % 1003,2 hPa 0,0 l/m 0 min 0 min 0,0 UV-I 0 W/m 33,5 km/h (5 Bft)
07.11.2013 07:00 13,8 C 12,2 C 94 % 1003,0 hPa 0,0 l/m 0 min 0 min 0,0 UV-I 0 W/m 20,6 km/h (4 Bft)
07.11.2013 07:02 13,8 C 12,2 C 94 % 1003,2 hPa 0,0 l/m 0 min 0 min 0,0 UV-I 0 W/m 15,4 km/h (3 Bft)
07.11.2013 07:04 13,8 C 12,2 C 94 % 1003,2 hPa 0,0 l/m 0 min 0 min 0,0 UV-I 0 W/m 12,9 km/h (3 Bft)
07.11.2013 07:06 13,8 C 12,2 C 94 % 1003,2 hPa 0,0 l/m 0 min 0 min 0,0 UV-I 0 W/m 20,6 km/h (4 Bft)
07.11.2013 07:08 13,8 C 12,2 C 94 % 1003,1 hPa 0,0 l/m 0 min 0 min 0,0 UV-I 0 W/m 25,7 km/h (4 Bft)
07.11.2013 07:10 13,8 C 12,2 C 94 % 1003,3 hPa 0,0 l/m 0 min 0 min 0,0 UV-I 0 W/m 15,4 km/h (3 Bft)
07.11.2013 07:12 13,8 C 12,2 C 94 % 1003,3 hPa 0,0 l/m 0 min 0 min 0,0 UV-I 0 W/m 20,6 km/h (4 Bft)
07.11.2013 07:14 13,8 C 12,2 C 94 % 1003,5 hPa 0,0 l/m 0 min 0 min 0,0 UV-I 0 W/m 20,6 km/h (4 Bft)
07.11.2013 07:16 13,8 C 12,2 C 94 % 1003,6 hPa 0,0 l/m 0 min 0 min 0,0 UV-I 0 W/m 18,0 km/h (3 Bft)
07.11.2013 07:18 13,8 C 12,2 C 94 % 1003,6 hPa 0,0 l/m 0 min 0 min 0,0 UV-I 0 W/m 30,9 km/h (5 Bft)
07.11.2013 07:20 13,8 C 12,2 C 94 % 1003,4 hPa 0,0 l/m 0 min 0 min 0,0 UV-I 0 W/m 25,7 km/h (4 Bft)
07.11.2013 07:22 13,8 C 12,2 C 94 % 1003,7 hPa 0,0 l/m 0 min 0 min 0,0 UV-I 0 W/m 28,3 km/h (4 Bft)
07.11.2013 07:24 13,8 C 12,8 C 94 % 1003,6 hPa 0,0 l/m 0 min 0 min 0,0 UV-I 0 W/m 20,6 km/h (4 Bft)
07.11.2013 07:26 13,9 C 12,8 C 94 % 1003,6 hPa 0,0 l/m 0 min 0 min 0,0 UV-I 0 W/m 25,7 km/h (4 Bft)
07.11.2013 07:28 13,9 C 12,2 C 94 % 1003,7 hPa 0,0 l/m 0 min 0 min 0,0 UV-I 0 W/m 15,4 km/h (3 Bft)
07.11.2013 07:30 13,9 C 12,2 C 94 % 1003,7 hPa 0,0 l/m 0 min 0 min 0,0 UV-I 0 W/m 20,6 km/h (4 Bft)
07.11.2013 07:32 13,9 C 12,8 C 93 % 1003,7 hPa 0,0 l/m 0 min 0 min 0,0 UV-I 0 W/m 25,7 km/h (4 Bft)
07.11.2013 07:34 13,9 C 12,2 C 93 % 1003,7 hPa 0,0 l/m 0 min 0 min 0,0 UV-I 0 W/m 12,9 km/h (3 Bft)
07.11.2013 07:36 13,9 C 12,8 C 93 % 1003,7 hPa 0,0 l/m 0 min 0 min 0,0 UV-I 0 W/m 23,2 km/h (4 Bft)
07.11.2013 07:38 13,9 C 12,2 C 93 % 1003,7 hPa 0,0 l/m 0 min 0 min 0,0 UV-I 0 W/m 12,9 km/h (3 Bft)
07.11.2013 07:40 13,9 C 12,2 C 93 % 1003,8 hPa 0,0 l/m 0 min 2 min 0,0 UV-I 0 W/m 5,1 km/h (1 Bft)
07.11.2013 07:42 13,9 C 12,2 C 93 % 1003,7 hPa 0,0 l/m 0 min 0 min 0,0 UV-I 0 W/m 20,6 km/h (4 Bft)
07.11.2013 07:44 14,0 C 12,2 C 93 % 1003,8 hPa 0,0 l/m 0 min 0 min 0,0 UV-I 0 W/m 23,2 km/h (4 Bft)
07.11.2013 07:46 14,0 C 12,2 C 93 % 1003,8 hPa 0,0 l/m 0 min 2 min 0,0 UV-I 0 W/m 15,4 km/h (3 Bft)
07.11.2013 07:48 13,9 C 12,2 C 93 % 1003,9 hPa 0,0 l/m 0 min 2 min 0,0 UV-I 0 W/m 10,3 km/h (2 Bft)
07.11.2013 07:50 13,9 C 12,2 C 93 % 1003,9 hPa 0,0 l/m 0 min 0 min 0,0 UV-I 0 W/m 28,3 km/h (4 Bft)
07.11.2013 07:52 13,9 C 12,2 C 93 % 1004,0 hPa 0,0 l/m 0 min 0 min 0,0 UV-I 0 W/m 30,9 km/h (5 Bft)
07.11.2013 07:54 13,9 C 12,2 C 93 % 1003,9 hPa 0,0 l/m 0 min 0 min 0,0 UV-I 0 W/m 18,0 km/h (3 Bft)
07.11.2013 07:56 13,9 C 12,2 C 93 % 1003,9 hPa 0,0 l/m 0 min 0 min 0,0 UV-I 0 W/m 20,6 km/h (4 Bft)
07.11.2013 07:58 13,9 C 12,2 C 94 % 1004,1 hPa 0,0 l/m 0 min 0 min 0,0 UV-I 0 W/m 25,7 km/h (4 Bft)
07.11.2013 08:00 13,9 C 12,2 C 94 % 1004,0 hPa 0,0 l/m 0 min 0 min 0,0 UV-I 0 W/m 12,9 km/h (3 Bft)
07.11.2013 08:02 13,9 C 12,2 C 93 % 1004,1 hPa 0,0 l/m 0 min 0 min 0,0 UV-I 0 W/m 10,3 km/h (2 Bft)
07.11.2013 08:04 13,9 C 12,2 C 94 % 1004,1 hPa 0,0 l/m 0 min 0 min 0,0 UV-I 0 W/m 12,9 km/h (3 Bft)
07.11.2013 08:06 13,8 C 12,2 C 94 % 1004,1 hPa 0,0 l/m 0 min 0 min 0,0 UV-I 5 W/m 28,3 km/h (4 Bft)
07.11.2013 08:08 13,8 C 12,2 C 94 % 1004,1 hPa 0,0 l/m 0 min 2 min 0,0 UV-I 5 W/m 20,6 km/h (4 Bft)
07.11.2013 08:10 13,8 C 12,2 C 94 % 1004,2 hPa 0,0 l/m 0 min 0 min 0,0 UV-I 5 W/m 18,0 km/h (3 Bft)
07.11.2013 08:12 13,8 C 12,2 C 94 % 1004,2 hPa 0,0 l/m 0 min 0 min 0,0 UV-I 7 W/m 7,7 km/h (2 Bft)
07.11.2013 08:14 13,8 C 12,2 C 94 % 1004,2 hPa 0,0 l/m 0 min 0 min 0,0 UV-I 7 W/m 15,4 km/h (3 Bft)
07.11.2013 08:16 13,8 C 12,2 C 94 % 1004,3 hPa 0,0 l/m 0 min 0 min 0,0 UV-I 7 W/m 18,0 km/h (3 Bft)
07.11.2013 08:18 13,8 C 12,2 C 94 % 1004,2 hPa 0,0 l/m 0 min 0 min 0,0 UV-I 9 W/m 12,9 km/h (3 Bft)
07.11.2013 08:20 13,8 C 12,2 C 94 % 1004,3 hPa 0,0 l/m 0 min 0 min 0,0 UV-I 9 W/m 7,7 km/h (2 Bft)
07.11.2013 08:22 13,8 C 12,2 C 94 % 1004,3 hPa 0,0 l/m 0 min 2 min 0,0 UV-I 14 W/m 23,2 km/h (4 Bft)
07.11.2013 08:24 13,8 C 12,2 C 94 % 1004,2 hPa 0,0 l/m 0 min 2 min 0,0 UV-I 14 W/m 12,9 km/h (3 Bft)
07.11.2013 08:26 13,8 C 12,2 C 94 % 1004,3 hPa 0,0 l/m 0 min 0 min 0,0 UV-I 18 W/m 7,7 km/h (2 Bft)
07.11.2013 08:28 13,8 C 12,2 C 94 % 1004,4 hPa 0,0 l/m 0 min 0 min 0,0 UV-I 30 W/m 10,3 km/h (2 Bft)
07.11.2013 08:30 13,8 C 12,2 C 94 % 1004,4 hPa 0,0 l/m 0 min 0 min 0,0 UV-I 28 W/m 18,0 km/h (3 Bft)
07.11.2013 08:32 13,8 C 12,2 C 94 % 1004,4 hPa 0,0 l/m 0 min 0 min 0,0 UV-I 32 W/m 20,6 km/h (4 Bft)
07.11.2013 08:34 13,8 C 12,2 C 94 % 1004,4 hPa 0,0 l/m 0 min 0 min 0,0 UV-I 30 W/m 7,7 km/h (2 Bft)
07.11.2013 08:36 13,8 C 12,2 C 94 % 1004,5 hPa 0,0 l/m 0 min 2 min 0,0 UV-I 26 W/m 18,0 km/h (3 Bft)
07.11.2013 08:38 13,8 C 12,2 C 95 % 1004,4 hPa 0,0 l/m 0 min 2 min 0,0 UV-I 28 W/m 2,6 km/h (1 Bft)
07.11.2013 08:40 13,8 C 12,2 C 95 % 1004,4 hPa 0,0 l/m 0 min 0 min 0,0 UV-I 51 W/m 15,4 km/h (3 Bft)
07.11.2013 08:42 13,8 C 12,2 C 95 % 1004,5 hPa 0,0 l/m 0 min 2 min 0,0 UV-I 51 W/m 20,6 km/h (4 Bft)
07.11.2013 08:44 13,8 C 12,2 C 95 % 1004,5 hPa 0,0 l/m 0 min 0 min 0,0 UV-I 33 W/m 12,9 km/h (3 Bft)
07.11.2013 08:46 13,8 C 12,2 C 95 % 1004,5 hPa 0,0 l/m 0 min 0 min 0,0 UV-I 26 W/m 12,9 km/h (3 Bft)
07.11.2013 08:48 13,8 C 12,2 C 95 % 1004,5 hPa 0,0 l/m 0 min 2 min 0,0 UV-I 28 W/m 18,0 km/h (3 Bft)
07.11.2013 08:50 13,8 C 12,2 C 95 % 1004,7 hPa 0,0 l/m 0 min 0 min 0,0 UV-I 26 W/m 25,7 km/h (4 Bft)
07.11.2013 08:52 13,8 C 12,2 C 95 % 1004,5 hPa 0,0 l/m 0 min 0 min 0,0 UV-I 23 W/m 12,9 km/h (3 Bft)
07.11.2013 08:54 13,8 C 12,2 C 95 % 1004,6 hPa 0,0 l/m 0 min 0 min 0,0 UV-I 32 W/m 12,9 km/h (3 Bft)
07.11.2013 08:56 13,8 C 12,2 C 95 % 1004,6 hPa 0,0 l/m 0 min 0 min 0,0 UV-I 33 W/m 33,5 km/h (5 Bft)
07.11.2013 08:58 13,8 C 12,2 C 95 % 1004,8 hPa 0,0 l/m 0 min 2 min 0,0 UV-I 39 W/m 18,0 km/h (3 Bft)
07.11.2013 09:00 13,8 C 12,2 C 95 % 1004,7 hPa 0,0 l/m 0 min 2 min 0,0 UV-I 37 W/m 36,0 km/h (5 Bft)
07.11.2013 09:02 13,9 C 12,2 C 95 % 1004,6 hPa 0,0 l/m 0 min 0 min 0,0 UV-I 32 W/m 20,6 km/h (4 Bft)
07.11.2013 09:04 13,9 C 12,2 C 95 % 1004,7 hPa 0,0 l/m 0 min 0 min 0,0 UV-I 25 W/m 38,6 km/h (5 Bft)
07.11.2013 09:06 13,9 C 12,2 C 95 % 1004,7 hPa 0,0 l/m 0 min 2 min 0,0 UV-I 28 W/m 18,0 km/h (3 Bft)
07.11.2013 09:08 13,9 C 12,2 C 95 % 1004,8 hPa 0,0 l/m 0 min 2 min 0,0 UV-I 26 W/m 10,3 km/h (2 Bft)
07.11.2013 09:10 13,9 C 12,2 C 95 % 1004,7 hPa 0,0 l/m 0 min 2 min 0,0 UV-I 33 W/m 20,6 km/h (4 Bft)
07.11.2013 09:12 13,9 C 12,2 C 95 % 1004,8 hPa 0,0 l/m 0 min 2 min 0,0 UV-I 37 W/m 25,7 km/h (4 Bft)
07.11.2013 09:14 13,9 C 12,2 C 95 % 1004,8 hPa 0,0 l/m 0 min 2 min 0,0 UV-I 33 W/m 20,6 km/h (4 Bft)
07.11.2013 09:16 13,9 C 12,2 C 95 % 1004,9 hPa 0,0 l/m 0 min 2 min 0,0 UV-I 32 W/m 12,9 km/h (3 Bft)
07.11.2013 09:18 13,9 C 12,2 C 95 % 1004,9 hPa 0,0 l/m 0 min 2 min 0,0 UV-I 25 W/m 20,6 km/h (4 Bft)
07.11.2013 09:20 13,9 C 12,2 C 95 % 1004,8 hPa 0,0 l/m 0 min 2 min 0,0 UV-I 21 W/m 10,3 km/h (2 Bft)
07.11.2013 09:22 13,9 C 12,2 C 95 % 1005,0 hPa 0,0 l/m 0 min 2 min 0,0 UV-I 26 W/m 23,2 km/h (4 Bft)
07.11.2013 09:24 13,9 C 12,2 C 95 % 1005,0 hPa 0,0 l/m 0 min 2 min 0,0 UV-I 28 W/m 20,6 km/h (4 Bft)
07.11.2013 09:26 13,9 C 12,2 C 95 % 1005,1 hPa 0,0 l/m 0 min 2 min 0,0 UV-I 32 W/m 12,9 km/h (3 Bft)
07.11.2013 09:28 13,8 C 12,2 C 95 % 1005,0 hPa 0,0 l/m 0 min 2 min 0,0 UV-I 30 W/m 20,6 km/h (4 Bft)
07.11.2013 09:30 13,8 C 12,2 C 95 % 1005,0 hPa 0,0 l/m 0 min 2 min 0,0 UV-I 30 W/m 15,4 km/h (3 Bft)
07.11.2013 09:32 13,8 C 12,2 C 95 % 1005,0 hPa 0,2 l/m 0 min 2 min 0,0 UV-I 26 W/m 15,4 km/h (3 Bft)
07.11.2013 09:34 13,8 C 12,2 C 95 % 1005,1 hPa 0,0 l/m 0 min 2 min 0,0 UV-I 32 W/m 23,2 km/h (4 Bft)
07.11.2013 09:36 13,8 C 12,2 C 96 % 1005,1 hPa 0,0 l/m 0 min 2 min 0,0 UV-I 30 W/m 12,9 km/h (3 Bft)
07.11.2013 09:38 13,8 C 12,2 C 96 % 1005,1 hPa 0,0 l/m 0 min 0 min 0,0 UV-I 35 W/m 10,3 km/h (2 Bft)
07.11.2013 09:40 13,8 C 12,2 C 95 % 1005,2 hPa 0,0 l/m 0 min 0 min 0,0 UV-I 46 W/m 10,3 km/h (2 Bft)
07.11.2013 09:42 13,8 C 12,2 C 96 % 1005,1 hPa 0,0 l/m 0 min 2 min 0,0 UV-I 40 W/m 10,3 km/h (2 Bft)
07.11.2013 09:44 13,8 C 12,2 C 96 % 1005,1 hPa 0,0 l/m 0 min 2 min 0,0 UV-I 37 W/m 10,3 km/h (2 Bft)
07.11.2013 09:46 13,8 C 12,2 C 96 % 1005,1 hPa 0,0 l/m 0 min 2 min 0,0 UV-I 37 W/m 15,4 km/h (3 Bft)
07.11.2013 09:48 13,8 C 12,2 C 96 % 1005,1 hPa 0,0 l/m 0 min 0 min 0,0 UV-I 35 W/m 18,0 km/h (3 Bft)
07.11.2013 09:50 13,7 C 12,2 C 96 % 1005,1 hPa 0,0 l/m 0 min 2 min 0,0 UV-I 35 W/m 18,0 km/h (3 Bft)
07.11.2013 09:52 13,7 C 12,2 C 96 % 1005,1 hPa 0,0 l/m 0 min 2 min 0,0 UV-I 35 W/m 20,6 km/h (4 Bft)
07.11.2013 09:54 13,7 C 12,2 C 96 % 1005,2 hPa 0,0 l/m 0 min 2 min 0,0 UV-I 32 W/m 15,4 km/h (3 Bft)
07.11.2013 09:56 13,7 C 12,2 C 96 % 1005,2 hPa 0,0 l/m 0 min 2 min 0,0 UV-I 35 W/m 10,3 km/h (2 Bft)
07.11.2013 09:58 13,7 C 12,2 C 96 % 1005,3 hPa 0,0 l/m 0 min 2 min 0,0 UV-I 39 W/m 23,2 km/h (4 Bft)
07.11.2013 10:00 13,7 C 12,2 C 96 % 1005,3 hPa 0,0 l/m 0 min 2 min 0,0 UV-I 47 W/m 15,4 km/h (3 Bft)
07.11.2013 10:02 13,7 C 12,2 C 96 % 1005,4 hPa 0,0 l/m 0 min 2 min 0,0 UV-I 51 W/m 15,4 km/h (3 Bft)
07.11.2013 10:04 13,7 C 12,2 C 96 % 1005,2 hPa 0,0 l/m 0 min 2 min 0,0 UV-I 39 W/m 12,9 km/h (3 Bft)
07.11.2013 10:06 13,7 C 12,2 C 96 % 1005,3 hPa 0,0 l/m 0 min 2 min 0,0 UV-I 30 W/m 12,9 km/h (3 Bft)
07.11.2013 10:08 13,7 C 12,2 C 96 % 1005,4 hPa 0,0 l/m 0 min 2 min 0,0 UV-I 18 W/m 18,0 km/h (3 Bft)
07.11.2013 10:10 13,7 C 12,2 C 96 % 1005,6 hPa 0,0 l/m 0 min 2 min 0,0 UV-I 14 W/m 15,4 km/h (3 Bft)
07.11.2013 10:12 13,7 C 12,2 C 96 % 1005,7 hPa 0,0 l/m 0 min 2 min 0,0 UV-I 11 W/m 15,4 km/h (3 Bft)
07.11.2013 10:14 13,7 C 12,2 C 96 % 1005,9 hPa 0,6 l/m 0 min 2 min 0,0 UV-I 19 W/m 12,9 km/h (3 Bft)
07.11.2013 10:16 13,7 C 11,7 C 96 % 1005,9 hPa 0,2 l/m 0 min 2 min 0,0 UV-I 28 W/m 12,9 km/h (3 Bft)
07.11.2013 10:18 13,6 C 11,7 C 96 % 1005,9 hPa 0,0 l/m 0 min 2 min 0,0 UV-I 35 W/m 5,1 km/h (1 Bft)
07.11.2013 10:20 13,4 C 11,1 C 96 % 1006,0 hPa 0,0 l/m 0 min 2 min 0,0 UV-I 39 W/m 18,0 km/h (3 Bft)
07.11.2013 10:22 13,3 C 11,1 C 96 % 1005,9 hPa 0,0 l/m 0 min 2 min 0,0 UV-I 39 W/m 0,0 km/h (0 Bft)
07.11.2013 10:24 13,2 C 11,1 C 96 % 1006,1 hPa 0,0 l/m 0 min 2 min 0,0 UV-I 32 W/m 0,0 km/h (0 Bft)
07.11.2013 10:26 13,2 C 11,1 C 96 % 1006,1 hPa 0,0 l/m 0 min 2 min 0,0 UV-I 33 W/m 0,0 km/h (0 Bft)
07.11.2013 10:28 13,1 C 11,1 C 96 % 1006,1 hPa 0,0 l/m 0 min 2 min 0,0 UV-I 39 W/m 10,3 km/h (2 Bft)
07.11.2013 10:30 13,0 C 11,1 C 96 % 1006,1 hPa 0,2 l/m 0 min 2 min 0,0 UV-I 33 W/m 5,1 km/h (1 Bft)
07.11.2013 10:32 12,9 C 11,1 C 96 % 1006,1 hPa 0,0 l/m 0 min 2 min 0,0 UV-I 35 W/m 15,4 km/h (3 Bft)
07.11.2013 10:34 12,9 C 11,1 C 96 % 1006,2 hPa 0,0 l/m 0 min 2 min 0,0 UV-I 44 W/m 0,0 km/h (0 Bft)
07.11.2013 10:36 12,8 C 11,1 C 96 % 1006,2 hPa 0,0 l/m 0 min 2 min 0,0 UV-I 40 W/m 15,4 km/h (3 Bft)
07.11.2013 10:38 12,8 C 11,1 C 96 % 1006,2 hPa 0,0 l/m 0 min 2 min 0,0 UV-I 39 W/m 10,3 km/h (2 Bft)
07.11.2013 10:40 12,7 C 11,1 C 96 % 1006,2 hPa 0,2 l/m 0 min 2 min 0,0 UV-I 39 W/m 2,6 km/h (1 Bft)
07.11.2013 10:42 12,6 C 11,1 C 96 % 1006,3 hPa 0,0 l/m 0 min 2 min 0,0 UV-I 39 W/m 10,3 km/h (2 Bft)
07.11.2013 10:44 12,6 C 10,6 C 96 % 1006,3 hPa 0,0 l/m 0 min 2 min 0,0 UV-I 53 W/m 2,6 km/h (1 Bft)
07.11.2013 10:46 12,6 C 10,6 C 96 % 1006,4 hPa 0,0 l/m 0 min 2 min 0,0 UV-I 46 W/m 7,7 km/h (2 Bft)
07.11.2013 10:48 12,5 C 10,6 C 96 % 1006,4 hPa 0,0 l/m 0 min 2 min 0,0 UV-I 44 W/m 2,6 km/h (1 Bft)
07.11.2013 10:50 12,5 C 10,6 C 96 % 1006,4 hPa 0,0 l/m 0 min 2 min 0,0 UV-I 42 W/m 0,0 km/h (0 Bft)
07.11.2013 10:52 12,4 C 11,1 C 96 % 1006,4 hPa 0,0 l/m 0 min 2 min 0,0 UV-I 40 W/m 2,6 km/h (1 Bft)
07.11.2013 10:54 12,4 C 10,6 C 96 % 1006,4 hPa 0,0 l/m 0 min 2 min 0,0 UV-I 40 W/m 15,4 km/h (3 Bft)
07.11.2013 10:56 12,4 C 10,6 C 96 % 1006,4 hPa 0,0 l/m 0 min 2 min 0,0 UV-I 44 W/m 2,6 km/h (1 Bft)
07.11.2013 10:58 12,3 C 10,6 C 96 % 1006,4 hPa 0,2 l/m 0 min 2 min 0,0 UV-I 49 W/m 0,0 km/h (0 Bft)
07.11.2013 11:00 12,3 C 10,6 C 96 % 1006,5 hPa 0,0 l/m 0 min 2 min 0,0 UV-I 46 W/m 2,6 km/h (1 Bft)
07.11.2013 11:02 12,3 C 11,1 C 96 % 1006,5 hPa 0,0 l/m 0 min 2 min 0,0 UV-I 49 W/m 0,0 km/h (0 Bft)
07.11.2013 11:04 12,3 C 11,1 C 96 % 1006,5 hPa 0,2 l/m 0 min 2 min 0,0 UV-I 53 W/m 0,0 km/h (0 Bft)
07.11.2013 11:06 12,3 C 11,1 C 96 % 1006,5 hPa 0,0 l/m 0 min 2 min 0,0 UV-I 58 W/m 7,7 km/h (2 Bft)
07.11.2013 11:08 12,3 C 11,1 C 96 % 1006,6 hPa 0,0 l/m 0 min 2 min 0,0 UV-I 58 W/m 0,0 km/h (0 Bft)
07.11.2013 11:10 12,2 C 11,1 C 96 % 1006,6 hPa 0,0 l/m 0 min 2 min 0,0 UV-I 53 W/m 0,0 km/h (0 Bft)
07.11.2013 11:12 12,3 C 11,1 C 96 % 1006,6 hPa 0,0 l/m 0 min 2 min 0,0 UV-I 58 W/m 0,0 km/h (0 Bft)
07.11.2013 11:14 12,3 C 11,1 C 96 % 1006,6 hPa 0,0 l/m 0 min 2 min 0,0 UV-I 56 W/m 7,7 km/h (2 Bft)
07.11.2013 11:16 12,2 C 10,6 C 96 % 1006,7 hPa 0,0 l/m 0 min 2 min 0,0 UV-I 49 W/m 5,1 km/h (1 Bft)
07.11.2013 11:18 12,2 C 10,6 C 96 % 1006,7 hPa 0,0 l/m 0 min 2 min 0,0 UV-I 51 W/m 0,0 km/h (0 Bft)
07.11.2013 11:20 12,2 C 11,1 C 96 % 1006,6 hPa 0,2 l/m 0 min 2 min 0,0 UV-I 53 W/m 0,0 km/h (0 Bft)
07.11.2013 11:22 12,2 C 11,1 C 96 % 1006,7 hPa 0,0 l/m 0 min 2 min 0,0 UV-I 54 W/m 5,1 km/h (1 Bft)
07.11.2013 11:24 12,2 C 11,1 C 96 % 1006,7 hPa 0,0 l/m 0 min 2 min 0,0 UV-I 53 W/m 2,6 km/h (1 Bft)
07.11.2013 11:26 12,2 C 11,1 C 96 % 1006,7 hPa 0,0 l/m 0 min 2 min 0,0 UV-I 44 W/m 0,0 km/h (0 Bft)
07.11.2013 11:28 12,2 C 10,6 C 96 % 1006,7 hPa 0,2 l/m 0 min 2 min 0,0 UV-I 46 W/m 0,0 km/h (0 Bft)
07.11.2013 11:30 12,2 C 10,6 C 96 % 1006,8 hPa 0,0 l/m 0 min 2 min 0,0 UV-I 56 W/m 0,0 km/h (0 Bft)
07.11.2013 11:32 12,2 C 10,6 C 96 % 1006,8 hPa 0,0 l/m 0 min 2 min 0,0 UV-I 56 W/m 10,3 km/h (2 Bft)
07.11.2013 11:34 12,1 C 10,6 C 96 % 1006,8 hPa 0,0 l/m 0 min 2 min 0,0 UV-I 47 W/m 0,0 km/h (0 Bft)
07.11.2013 11:36 12,1 C 10,6 C 96 % 1006,8 hPa 0,0 l/m 0 min 2 min 0,0 UV-I 56 W/m 0,0 km/h (0 Bft)
07.11.2013 11:38 12,1 C 10,6 C 96 % 1006,8 hPa 0,0 l/m 0 min 2 min 0,0 UV-I 49 W/m 5,1 km/h (1 Bft)
07.11.2013 11:40 12,1 C 10,6 C 96 % 1006,9 hPa 0,0 l/m 0 min 2 min 0,0 UV-I 42 W/m 2,6 km/h (1 Bft)
07.11.2013 11:42 12,1 C 10,6 C 96 % 1006,9 hPa 0,0 l/m 0 min 2 min 0,0 UV-I 51 W/m 0,0 km/h (0 Bft)
07.11.2013 11:44 12,1 C 10,6 C 96 % 1006,9 hPa 0,2 l/m 0 min 2 min 0,0 UV-I 54 W/m 12,9 km/h (3 Bft)
07.11.2013 11:46 12,1 C 10,6 C 96 % 1006,9 hPa 0,0 l/m 0 min 2 min 0,0 UV-I 51 W/m 5,1 km/h (1 Bft)
07.11.2013 11:48 12,1 C 10,6 C 96 % 1006,9 hPa 0,0 l/m 0 min 2 min 0,0 UV-I 47 W/m 7,7 km/h (2 Bft)
07.11.2013 11:50 12,0 C 10,6 C 96 % 1006,9 hPa 0,2 l/m 0 min 2 min 0,0 UV-I 51 W/m 5,1 km/h (1 Bft)
07.11.2013 11:52 12,0 C 10,6 C 96 % 1006,9 hPa 0,0 l/m 0 min 2 min 0,0 UV-I 49 W/m 7,7 km/h (2 Bft)
07.11.2013 11:54 11,9 C 10,6 C 96 % 1006,8 hPa 0,0 l/m 0 min 2 min 0,0 UV-I 53 W/m 2,6 km/h (1 Bft)
07.11.2013 11:56 11,9 C 10,6 C 96 % 1006,9 hPa 0,0 l/m 0 min 2 min 0,0 UV-I 42 W/m 0,0 km/h (0 Bft)
07.11.2013 11:58 11,9 C 10,6 C 96 % 1007,0 hPa 0,0 l/m 0 min 2 min 0,0 UV-I 47 W/m 0,0 km/h (0 Bft)
07.11.2013 12:00 11,9 C 10,6 C 96 % 1007,0 hPa 0,0 l/m 0 min 2 min 0,0 UV-I 49 W/m 0,0 km/h (0 Bft)
07.11.2013 12:02 11,8 C 10,6 C 96 % 1006,9 hPa 0,0 l/m 0 min 2 min 0,0 UV-I 51 W/m 5,1 km/h (1 Bft)
07.11.2013 12:06 11,8 C 10,6 C 96 % 1007,0 hPa 0,2 l/m 0 min 2 min 0,0 UV-I 54 W/m 18,0 km/h (3 Bft)
07.11.2013 12:08 11,8 C 10,6 C 97 % 1007,0 hPa 0,0 l/m 0 min 2 min 0,0 UV-I 62 W/m 10,3 km/h (2 Bft)
07.11.2013 12:10 11,8 C 10,6 C 97 % 1007,0 hPa 0,2 l/m 0 min 2 min 0,0 UV-I 60 W/m 2,6 km/h (1 Bft)
07.11.2013 12:12 11,7 C 10,6 C 97 % 1007,0 hPa 0,0 l/m 0 min 2 min 0,0 UV-I 65 W/m 0,0 km/h (0 Bft)
07.11.2013 12:14 11,8 C 10,6 C 97 % 1007,0 hPa 0,0 l/m 0 min 2 min 0,0 UV-I 70 W/m 0,0 km/h (0 Bft)
07.11.2013 12:16 11,8 C 10,6 C 97 % 1007,1 hPa 0,0 l/m 0 min 2 min 0,0 UV-I 67 W/m 2,6 km/h (1 Bft)
07.11.2013 12:18 11,7 C 10,6 C 96 % 1007,1 hPa 0,0 l/m 0 min 2 min 0,0 UV-I 63 W/m 15,4 km/h (3 Bft)
07.11.2013 12:20 11,7 C 10,6 C 97 % 1007,1 hPa 0,0 l/m 0 min 2 min 0,0 UV-I 67 W/m 0,0 km/h (0 Bft)
07.11.2013 12:22 11,7 C 10,6 C 97 % 1007,0 hPa 0,0 l/m 0 min 2 min 0,0 UV-I 74 W/m 0,0 km/h (0 Bft)
07.11.2013 12:24 11,7 C 10,6 C 97 % 1007,0 hPa 0,2 l/m 0 min 2 min 0,0 UV-I 70 W/m 0,0 km/h (0 Bft)
07.11.2013 12:26 11,7 C 10,6 C 97 % 1007,0 hPa 0,0 l/m 0 min 2 min 0,0 UV-I 65 W/m 0,0 km/h (0 Bft)
07.11.2013 12:28 11,7 C 10,6 C 97 % 1007,1 hPa 0,0 l/m 0 min 2 min 0,0 UV-I 65 W/m 0,0 km/h (0 Bft)
07.11.2013 12:30 11,7 C 10,6 C 97 % 1007,0 hPa 0,0 l/m 0 min 2 min 0,0 UV-I 69 W/m 0,0 km/h (0 Bft)
07.11.2013 12:32 11,7 C 10,6 C 97 % 1007,0 hPa 0,0 l/m 0 min 2 min 0,0 UV-I 72 W/m 0,0 km/h (0 Bft)
07.11.2013 12:34 11,7 C 10,6 C 97 % 1007,1 hPa 0,2 l/m 0 min 2 min 0,0 UV-I 74 W/m 0,0 km/h (0 Bft)
07.11.2013 12:36 11,7 C 10,6 C 97 % 1007,1 hPa 0,0 l/m 0 min 2 min 0,0 UV-I 84 W/m 0,0 km/h (0 Bft)
07.11.2013 12:38 11,7 C 10,6 C 97 % 1007,1 hPa 0,0 l/m 0 min 2 min 0,0 UV-I 84 W/m 0,0 km/h (0 Bft)
07.11.2013 12:40 11,7 C 10,6 C 97 % 1007,1 hPa 0,0 l/m 0 min 2 min 0,0 UV-I 88 W/m 0,0 km/h (0 Bft)
07.11.2013 12:42 11,7 C 11,1 C 97 % 1007,1 hPa 0,0 l/m 0 min 2 min 0,0 UV-I 93 W/m 2,6 km/h (1 Bft)
07.11.2013 12:44 11,8 C 11,1 C 97 % 1007,1 hPa 0,0 l/m 0 min 2 min 0,0 UV-I 88 W/m 0,0 km/h (0 Bft)
07.11.2013 12:46 11,8 C 11,1 C 97 % 1007,1 hPa 0,0 l/m 0 min 2 min 0,0 UV-I 79 W/m 0,0 km/h (0 Bft)
07.11.2013 12:48 11,8 C 11,1 C 97 % 1007,1 hPa 0,0 l/m 0 min 2 min 0,0 UV-I 72 W/m 0,0 km/h (0 Bft)
07.11.2013 12:50 11,8 C 11,1 C 97 % 1007,1 hPa 0,0 l/m 0 min 2 min 0,0 UV-I 63 W/m 0,0 km/h (0 Bft)
07.11.2013 12:52 11,8 C 10,6 C 98 % 1007,1 hPa 0,0 l/m 0 min 2 min 0,0 UV-I 53 W/m 0,0 km/h (0 Bft)
07.11.2013 12:54 11,8 C 11,1 C 98 % 1007,1 hPa 0,0 l/m 0 min 2 min 0,0 UV-I 58 W/m 0,0 km/h (0 Bft)
07.11.2013 12:56 11,8 C 11,1 C 98 % 1007,1 hPa 0,2 l/m 0 min 2 min 0,0 UV-I 58 W/m 0,0 km/h (0 Bft)
07.11.2013 12:58 11,8 C 11,1 C 98 % 1007,1 hPa 0,0 l/m 0 min 2 min 0,0 UV-I 58 W/m 0,0 km/h (0 Bft)
07.11.2013 13:00 11,8 C 11,1 C 98 % 1007,1 hPa 0,0 l/m 0 min 2 min 0,0 UV-I 60 W/m 0,0 km/h (0 Bft)
07.11.2013 13:02 11,8 C 11,1 C 98 % 1007,1 hPa 0,2 l/m 0 min 2 min 0,0 UV-I 65 W/m 7,7 km/h (2 Bft)
07.11.2013 13:04 11,8 C 10,6 C 98 % 1007,0 hPa 0,0 l/m 0 min 2 min 0,0 UV-I 69 W/m 7,7 km/h (2 Bft)
07.11.2013 13:06 11,8 C 11,1 C 98 % 1007,1 hPa 0,0 l/m 0 min 2 min 0,0 UV-I 72 W/m 0,0 km/h (0 Bft)
07.11.2013 13:08 11,8 C 11,1 C 98 % 1007,2 hPa 0,0 l/m 0 min 2 min 0,0 UV-I 72 W/m 0,0 km/h (0 Bft)
07.11.2013 13:10 11,8 C 11,1 C 98 % 1007,1 hPa 0,0 l/m 0 min 2 min 0,0 UV-I 70 W/m 0,0 km/h (0 Bft)
07.11.2013 13:12 11,8 C 11,1 C 98 % 1007,1 hPa 0,0 l/m 0 min 2 min 0,0 UV-I 74 W/m 5,1 km/h (1 Bft)
07.11.2013 13:14 11,8 C 11,1 C 98 % 1007,1 hPa 0,0 l/m 0 min 2 min 0,0 UV-I 72 W/m 0,0 km/h (0 Bft)
07.11.2013 13:16 11,8 C 11,1 C 98 % 1007,2 hPa 0,2 l/m 0 min 2 min 0,0 UV-I 62 W/m 0,0 km/h (0 Bft)
07.11.2013 13:18 11,8 C 11,1 C 98 % 1007,2 hPa 0,0 l/m 0 min 2 min 0,0 UV-I 72 W/m 2,6 km/h (1 Bft)
07.11.2013 13:20 11,8 C 11,1 C 98 % 1007,2 hPa 0,2 l/m 0 min 2 min 0,0 UV-I 72 W/m 0,0 km/h (0 Bft)
07.11.2013 13:22 11,8 C 11,1 C 98 % 1007,2 hPa 0,0 l/m 0 min 2 min 0,0 UV-I 74 W/m 0,0 km/h (0 Bft)
07.11.2013 13:24 11,8 C 11,1 C 98 % 1007,2 hPa 0,0 l/m 0 min 2 min 0,0 UV-I 77 W/m 0,0 km/h (0 Bft)
07.11.2013 13:26 11,8 C 11,1 C 98 % 1007,2 hPa 0,0 l/m 0 min 2 min 0,0 UV-I 81 W/m 0,0 km/h (0 Bft)
07.11.2013 13:28 11,8 C 11,1 C 98 % 1007,1 hPa 0,0 l/m 0 min 2 min 0,0 UV-I 84 W/m 0,0 km/h (0 Bft)
07.11.2013 13:30 11,8 C 11,1 C 98 % 1007,2 hPa 0,0 l/m 0 min 2 min 0,0 UV-I 84 W/m 0,0 km/h (0 Bft)
07.11.2013 13:32 11,8 C 11,1 C 98 % 1007,1 hPa 0,0 l/m 0 min 2 min 0,0 UV-I 74 W/m 0,0 km/h (0 Bft)
07.11.2013 13:34 11,8 C 11,1 C 98 % 1007,1 hPa 0,0 l/m 0 min 2 min 0,0 UV-I 67 W/m 0,0 km/h (0 Bft)
07.11.2013 13:36 11,8 C 11,1 C 98 % 1007,2 hPa 0,0 l/m 0 min 2 min 0,0 UV-I 69 W/m 0,0 km/h (0 Bft)
07.11.2013 13:38 11,8 C 11,1 C 98 % 1007,2 hPa 0,0 l/m 0 min 2 min 0,0 UV-I 65 W/m 0,0 km/h (0 Bft)
07.11.2013 13:40 11,9 C 11,1 C 98 % 1007,2 hPa 0,0 l/m 0 min 2 min 0,0 UV-I 62 W/m 0,0 km/h (0 Bft)
07.11.2013 13:42 11,8 C 11,1 C 98 % 1007,2 hPa 0,2 l/m 0 min 2 min 0,0 UV-I 56 W/m 0,0 km/h (0 Bft)
07.11.2013 13:44 11,8 C 11,1 C 98 % 1007,2 hPa 0,0 l/m 0 min 2 min 0,0 UV-I 49 W/m 0,0 km/h (0 Bft)
07.11.2013 13:46 11,9 C 11,1 C 98 % 1007,2 hPa 0,0 l/m 0 min 2 min 0,0 UV-I 37 W/m 0,0 km/h (0 Bft)
07.11.2013 13:48 11,9 C 11,1 C 98 % 1007,2 hPa 0,0 l/m 0 min 2 min 0,0 UV-I 32 W/m 0,0 km/h (0 Bft)
07.11.2013 13:50 11,8 C 11,1 C 98 % 1007,2 hPa 0,2 l/m 0 min 2 min 0,0 UV-I 33 W/m 0,0 km/h (0 Bft)
07.11.2013 13:52 11,8 C 10,6 C 98 % 1007,3 hPa 0,0 l/m 0 min 2 min 0,0 UV-I 35 W/m 0,0 km/h (0 Bft)
07.11.2013 13:54 11,8 C 10,6 C 98 % 1007,3 hPa 0,0 l/m 0 min 2 min 0,0 UV-I 37 W/m 0,0 km/h (0 Bft)
07.11.2013 13:56 11,8 C 10,6 C 98 % 1007,4 hPa 0,0 l/m 0 min 2 min 0,0 UV-I 33 W/m 5,1 km/h (1 Bft)
07.11.2013 13:58 11,7 C 10,6 C 98 % 1007,3 hPa 0,0 l/m 0 min 2 min 0,0 UV-I 30 W/m 2,6 km/h (1 Bft)
07.11.2013 14:00 11,7 C 10,6 C 98 % 1007,3 hPa 0,0 l/m 0 min 2 min 0,0 UV-I 26 W/m 2,6 km/h (1 Bft)
07.11.2013 14:02 11,7 C 10,6 C 98 % 1007,3 hPa 0,0 l/m 0 min 2 min 0,0 UV-I 30 W/m 0,0 km/h (0 Bft)
07.11.2013 14:04 11,7 C 10,6 C 98 % 1007,3 hPa 0,0 l/m 0 min 2 min 0,0 UV-I 32 W/m 0,0 km/h (0 Bft)
07.11.2013 14:06 11,6 C 10,6 C 98 % 1007,3 hPa 0,2 l/m 0 min 2 min 0,0 UV-I 35 W/m 0,0 km/h (0 Bft)
07.11.2013 14:08 11,7 C 10,6 C 98 % 1007,4 hPa 0,0 l/m 0 min 2 min 0,0 UV-I 51 W/m 0,0 km/h (0 Bft)
07.11.2013 14:10 11,6 C 10,6 C 98 % 1007,4 hPa 0,0 l/m 0 min 2 min 0,0 UV-I 53 W/m 0,0 km/h (0 Bft)
07.11.2013 14:12 11,6 C 10,6 C 98 % 1007,4 hPa 0,0 l/m 0 min 2 min 0,0 UV-I 51 W/m 2,6 km/h (1 Bft)
07.11.2013 14:14 11,6 C 10,6 C 98 % 1007,4 hPa 0,0 l/m 0 min 2 min 0,0 UV-I 39 W/m 2,6 km/h (1 Bft)
07.11.2013 14:16 11,6 C 10,6 C 98 % 1007,5 hPa 0,0 l/m 0 min 2 min 0,0 UV-I 30 W/m 0,0 km/h (0 Bft)
07.11.2013 14:18 11,6 C 10,6 C 98 % 1007,5 hPa 0,0 l/m 0 min 2 min 0,0 UV-I 32 W/m 0,0 km/h (0 Bft)
07.11.2013 14:20 11,6 C 10,6 C 98 % 1007,4 hPa 0,0 l/m 0 min 2 min 0,0 UV-I 37 W/m 0,0 km/h (0 Bft)
07.11.2013 14:22 11,6 C 10,6 C 98 % 1007,4 hPa 0,2 l/m 0 min 2 min 0,0 UV-I 49 W/m 0,0 km/h (0 Bft)
07.11.2013 14:24 11,6 C 10,6 C 98 % 1007,3 hPa 0,0 l/m 0 min 2 min 0,0 UV-I 51 W/m 0,0 km/h (0 Bft)
07.11.2013 14:26 11,6 C 10,6 C 98 % 1007,5 hPa 0,0 l/m 0 min 2 min 0,0 UV-I 37 W/m 0,0 km/h (0 Bft)
07.11.2013 14:28 11,6 C 10,6 C 98 % 1007,5 hPa 0,0 l/m 0 min 2 min 0,0 UV-I 47 W/m 0,0 km/h (0 Bft)
07.11.2013 14:30 11,6 C 10,6 C 98 % 1007,4 hPa 0,0 l/m 0 min 2 min 0,0 UV-I 54 W/m 0,0 km/h (0 Bft)
07.11.2013 14:32 11,5 C 10,6 C 98 % 1007,4 hPa 0,0 l/m 0 min 2 min 0,0 UV-I 60 W/m 0,0 km/h (0 Bft)
07.11.2013 14:34 11,4 C 10,6 C 98 % 1007,5 hPa 0,0 l/m 0 min 0 min 0,0 UV-I 47 W/m 0,0 km/h (0 Bft)
07.11.2013 14:36 11,4 C 10,6 C 98 % 1007,5 hPa 0,0 l/m 0 min 0 min 0,0 UV-I 44 W/m 0,0 km/h (0 Bft)
07.11.2013 14:38 11,4 C 10,6 C 98 % 1007,5 hPa 0,0 l/m 0 min 0 min 0,0 UV-I 51 W/m 0,0 km/h (0 Bft)
07.11.2013 14:40 11,4 C 10,6 C 98 % 1007,6 hPa 0,0 l/m 0 min 2 min 0,0 UV-I 47 W/m 0,0 km/h (0 Bft)
07.11.2013 14:42 11,4 C 10,6 C 98 % 1007,5 hPa 0,0 l/m 0 min 2 min 0,0 UV-I 46 W/m 0,0 km/h (0 Bft)
07.11.2013 14:44 11,3 C 10,6 C 98 % 1007,6 hPa 0,0 l/m 0 min 2 min 0,0 UV-I 40 W/m 0,0 km/h (0 Bft)
07.11.2013 14:46 11,3 C 10,6 C 98 % 1007,6 hPa 0,0 l/m 0 min 2 min 0,0 UV-I 46 W/m 0,0 km/h (0 Bft)
07.11.2013 14:48 11,2 C 10,6 C 98 % 1007,7 hPa 0,0 l/m 0 min 2 min 0,0 UV-I 62 W/m 5,1 km/h (1 Bft)
07.11.2013 14:50 11,1 C 10,0 C 98 % 1007,6 hPa 0,0 l/m 0 min 2 min 0,0 UV-I 74 W/m 2,6 km/h (1 Bft)
07.11.2013 14:52 11,1 C 10,6 C 98 % 1007,6 hPa 0,0 l/m 0 min 2 min 0,0 UV-I 70 W/m 0,0 km/h (0 Bft)
07.11.2013 14:54 11,1 C 10,6 C 98 % 1007,6 hPa 0,0 l/m 0 min 2 min 0,0 UV-I 67 W/m 0,0 km/h (0 Bft)
07.11.2013 14:56 11,1 C 10,0 C 98 % 1007,6 hPa 0,0 l/m 0 min 2 min 0,0 UV-I 53 W/m 0,0 km/h (0 Bft)
07.11.2013 14:58 11,1 C 10,0 C 98 % 1007,6 hPa 0,0 l/m 0 min 0 min 0,0 UV-I 58 W/m 0,0 km/h (0 Bft)
07.11.2013 15:00 11,1 C 10,0 C 98 % 1007,5 hPa 0,0 l/m 0 min 0 min 0,0 UV-I 54 W/m 0,0 km/h (0 Bft)
07.11.2013 15:02 11,1 C 10,0 C 98 % 1007,4 hPa 0,0 l/m 0 min 0 min 0,0 UV-I 58 W/m 0,0 km/h (0 Bft)
07.11.2013 15:04 11,0 C 10,0 C 98 % 1007,4 hPa 0,0 l/m 0 min 2 min 0,0 UV-I 58 W/m 0,0 km/h (0 Bft)
07.11.2013 15:06 11,0 C 10,0 C 98 % 1007,4 hPa 0,0 l/m 0 min 2 min 0,0 UV-I 49 W/m 0,0 km/h (0 Bft)
07.11.2013 15:08 11,0 C 10,0 C 98 % 1007,5 hPa 0,0 l/m 0 min 0 min 0,0 UV-I 28 W/m 0,0 km/h (0 Bft)
07.11.2013 15:10 10,9 C 10,0 C 98 % 1007,6 hPa 0,0 l/m 0 min 2 min 0,0 UV-I 25 W/m 0,0 km/h (0 Bft)
07.11.2013 15:12 11,0 C 10,0 C 98 % 1007,6 hPa 0,0 l/m 0 min 2 min 0,0 UV-I 35 W/m 0,0 km/h (0 Bft)
07.11.2013 15:14 11,0 C 10,0 C 98 % 1007,5 hPa 0,0 l/m 0 min 0 min 0,0 UV-I 35 W/m 0,0 km/h (0 Bft)
07.11.2013 15:16 11,0 C 10,0 C 98 % 1007,5 hPa 0,0 l/m 0 min 0 min 0,0 UV-I 33 W/m 0,0 km/h (0 Bft)
07.11.2013 15:18 11,0 C 10,0 C 98 % 1007,5 hPa 0,0 l/m 0 min 2 min 0,0 UV-I 32 W/m 0,0 km/h (0 Bft)
07.11.2013 15:20 11,0 C 10,0 C 98 % 1007,5 hPa 0,0 l/m 0 min 2 min 0,0 UV-I 37 W/m 0,0 km/h (0 Bft)
07.11.2013 15:22 11,0 C 10,0 C 98 % 1007,6 hPa 0,0 l/m 0 min 0 min 0,0 UV-I 32 W/m 0,0 km/h (0 Bft)
07.11.2013 15:24 11,0 C 10,0 C 99 % 1007,6 hPa 0,0 l/m 0 min 0 min 0,0 UV-I 26 W/m 0,0 km/h (0 Bft)
07.11.2013 15:26 11,0 C 10,0 C 98 % 1007,7 hPa 0,0 l/m 0 min 0 min 0,0 UV-I 26 W/m 0,0 km/h (0 Bft)
07.11.2013 15:28 11,0 C 10,0 C 98 % 1007,6 hPa 0,0 l/m 0 min 0 min 0,0 UV-I 28 W/m 0,0 km/h (0 Bft)
07.11.2013 15:30 11,0 C 10,0 C 98 % 1007,7 hPa 0,0 l/m 0 min 2 min 0,0 UV-I 28 W/m 0,0 km/h (0 Bft)
07.11.2013 15:32 11,0 C 10,0 C 99 % 1007,7 hPa 0,0 l/m 0 min 2 min 0,0 UV-I 25 W/m 0,0 km/h (0 Bft)
07.11.2013 15:34 11,0 C 10,0 C 98 % 1007,7 hPa 0,0 l/m 0 min 2 min 0,0 UV-I 21 W/m 0,0 km/h (0 Bft)
07.11.2013 15:36 11,0 C 10,0 C 98 % 1007,7 hPa 0,0 l/m 0 min 0 min 0,0 UV-I 21 W/m 0,0 km/h (0 Bft)
07.11.2013 15:38 11,0 C 10,0 C 98 % 1007,7 hPa 0,0 l/m 0 min 2 min 0,0 UV-I 25 W/m 0,0 km/h (0 Bft)
07.11.2013 15:40 11,0 C 10,0 C 98 % 1007,6 hPa 0,0 l/m 0 min 2 min 0,0 UV-I 28 W/m 5,1 km/h (1 Bft)
07.11.2013 15:42 11,0 C 10,0 C 98 % 1007,6 hPa 0,0 l/m 0 min 0 min 0,0 UV-I 28 W/m 0,0 km/h (0 Bft)
07.11.2013 15:44 11,0 C 10,0 C 98 % 1007,7 hPa 0,0 l/m 0 min 2 min 0,0 UV-I 26 W/m 0,0 km/h (0 Bft)
07.11.2013 15:46 11,0 C 10,0 C 98 % 1007,7 hPa 0,0 l/m 0 min 2 min 0,0 UV-I 25 W/m 0,0 km/h (0 Bft)
07.11.2013 15:48 11,0 C 10,0 C 98 % 1007,6 hPa 0,0 l/m 0 min 0 min 0,0 UV-I 30 W/m 0,0 km/h (0 Bft)
07.11.2013 15:50 11,0 C 10,0 C 98 % 1007,5 hPa 0,0 l/m 0 min 2 min 0,0 UV-I 28 W/m 0,0 km/h (0 Bft)
07.11.2013 15:52 11,0 C 10,0 C 98 % 1007,5 hPa 0,0 l/m 0 min 2 min 0,0 UV-I 26 W/m 0,0 km/h (0 Bft)
07.11.2013 15:54 11,0 C 10,0 C 98 % 1007,6 hPa 0,0 l/m 0 min 0 min 0,0 UV-I 19 W/m 0,0 km/h (0 Bft)
07.11.2013 15:56 11,0 C 10,0 C 98 % 1007,7 hPa 0,0 l/m 0 min 2 min 0,0 UV-I 18 W/m 0,0 km/h (0 Bft)
07.11.2013 15:58 11,0 C 10,0 C 98 % 1007,7 hPa 0,0 l/m 0 min 0 min 0,0 UV-I 16 W/m 0,0 km/h (0 Bft)
07.11.2013 16:00 11,0 C 10,0 C 98 % 1007,6 hPa 0,0 l/m 0 min 0 min 0,0 UV-I 14 W/m 0,0 km/h (0 Bft)
07.11.2013 16:02 11,0 C 10,0 C 98 % 1007,7 hPa 0,0 l/m 0 min 0 min 0,0 UV-I 11 W/m 0,0 km/h (0 Bft)
07.11.2013 16:04 11,0 C 10,0 C 98 % 1007,9 hPa 0,0 l/m 0 min 0 min 0,0 UV-I 9 W/m 0,0 km/h (0 Bft)
07.11.2013 16:06 11,0 C 10,0 C 98 % 1007,8 hPa 0,0 l/m 0 min 0 min 0,0 UV-I 9 W/m 0,0 km/h (0 Bft)
07.11.2013 16:08 11,0 C 10,0 C 98 % 1007,8 hPa 0,0 l/m 0 min 0 min 0,0 UV-I 9 W/m 0,0 km/h (0 Bft)
07.11.2013 16:10 11,0 C 10,0 C 98 % 1007,8 hPa 0,0 l/m 0 min 2 min 0,0 UV-I 9 W/m 0,0 km/h (0 Bft)
07.11.2013 16:12 11,0 C 10,0 C 98 % 1007,9 hPa 0,0 l/m 0 min 2 min 0,0 UV-I 7 W/m 0,0 km/h (0 Bft)
07.11.2013 16:14 11,0 C 10,0 C 98 % 1008,0 hPa 0,0 l/m 0 min 2 min 0,0 UV-I 7 W/m 0,0 km/h (0 Bft)
07.11.2013 16:16 10,9 C 10,0 C 98 % 1008,0 hPa 0,0 l/m 0 min 0 min 0,0 UV-I 7 W/m 0,0 km/h (0 Bft)
07.11.2013 16:18 10,9 C 10,0 C 98 % 1008,0 hPa 0,0 l/m 0 min 2 min 0,0 UV-I 7 W/m 0,0 km/h (0 Bft)
07.11.2013 16:20 11,0 C 10,0 C 98 % 1008,0 hPa 0,0 l/m 0 min 2 min 0,0 UV-I 7 W/m 0,0 km/h (0 Bft)
07.11.2013 16:22 10,9 C 10,0 C 98 % 1008,0 hPa 0,0 l/m 0 min 2 min 0,0 UV-I 9 W/m 0,0 km/h (0 Bft)
07.11.2013 16:24 10,9 C 10,0 C 98 % 1008,0 hPa 0,0 l/m 0 min 2 min 0,0 UV-I 9 W/m 0,0 km/h (0 Bft)
07.11.2013 16:26 10,9 C 10,0 C 98 % 1008,1 hPa 0,2 l/m 0 min 2 min 0,0 UV-I 7 W/m 0,0 km/h (0 Bft)
07.11.2013 16:28 10,9 C 10,0 C 98 % 1008,1 hPa 0,0 l/m 0 min 2 min 0,0 UV-I 7 W/m 0,0 km/h (0 Bft)
07.11.2013 16:30 10,9 C 10,0 C 98 % 1008,1 hPa 0,0 l/m 0 min 2 min 0,0 UV-I 9 W/m 0,0 km/h (0 Bft)
07.11.2013 16:32 10,9 C 10,0 C 98 % 1008,0 hPa 0,0 l/m 0 min 2 min 0,0 UV-I 7 W/m 0,0 km/h (0 Bft)
07.11.2013 16:34 10,9 C 10,0 C 98 % 1008,0 hPa 0,0 l/m 0 min 2 min 0,0 UV-I 5 W/m 0,0 km/h (0 Bft)
07.11.2013 16:36 10,9 C 10,0 C 98 % 1008,0 hPa 0,0 l/m 0 min 2 min 0,0 UV-I 0 W/m 0,0 km/h (0 Bft)
07.11.2013 16:38 10,9 C 10,0 C 98 % 1008,1 hPa 0,0 l/m 0 min 2 min 0,0 UV-I 0 W/m 0,0 km/h (0 Bft)
07.11.2013 16:40 10,9 C 10,0 C 98 % 1008,0 hPa 0,0 l/m 0 min 2 min 0,0 UV-I 0 W/m 0,0 km/h (0 Bft)
07.11.2013 16:42 10,9 C 10,0 C 98 % 1008,1 hPa 0,0 l/m 0 min 2 min 0,0 UV-I 0 W/m 0,0 km/h (0 Bft)
07.11.2013 16:44 10,9 C 10,0 C 98 % 1008,1 hPa 0,0 l/m 0 min 2 min 0,0 UV-I 0 W/m 0,0 km/h (0 Bft)
07.11.2013 16:46 10,9 C 10,0 C 98 % 1008,1 hPa 0,2 l/m 0 min 2 min 0,0 UV-I 0 W/m 0,0 km/h (0 Bft)
07.11.2013 16:48 10,9 C 10,0 C 98 % 1008,1 hPa 0,0 l/m 0 min 2 min 0,0 UV-I 0 W/m 0,0 km/h (0 Bft)
07.11.2013 16:50 10,9 C 10,0 C 98 % 1008,0 hPa 0,0 l/m 0 min 2 min 0,0 UV-I 0 W/m 0,0 km/h (0 Bft)
07.11.2013 16:52 10,9 C 10,0 C 98 % 1007,9 hPa 0,0 l/m 0 min 2 min 0,0 UV-I 0 W/m 0,0 km/h (0 Bft)
07.11.2013 16:54 10,9 C 10,0 C 98 % 1007,9 hPa 0,0 l/m 0 min 2 min 0,0 UV-I 0 W/m 0,0 km/h (0 Bft)
07.11.2013 16:56 10,9 C 10,0 C 98 % 1008,0 hPa 0,0 l/m 0 min 2 min 0,0 UV-I 0 W/m 0,0 km/h (0 Bft)
07.11.2013 16:58 10,9 C 10,0 C 98 % 1008,1 hPa 0,0 l/m 0 min 2 min 0,0 UV-I 0 W/m 0,0 km/h (0 Bft)
07.11.2013 17:00 10,9 C 10,0 C 98 % 1008,1 hPa 0,0 l/m 0 min 2 min 0,0 UV-I 0 W/m 0,0 km/h (0 Bft)
07.11.2013 17:02 10,9 C 10,0 C 98 % 1008,1 hPa 0,0 l/m 0 min 2 min 0,0 UV-I 0 W/m 0,0 km/h (0 Bft)
07.11.2013 17:04 10,9 C 10,0 C 98 % 1008,1 hPa 0,0 l/m 0 min 2 min 0,0 UV-I 0 W/m 0,0 km/h (0 Bft)
07.11.2013 17:06 10,9 C 10,0 C 98 % 1008,1 hPa 0,0 l/m 0 min 2 min 0,0 UV-I 0 W/m 0,0 km/h (0 Bft)
07.11.2013 17:08 10,9 C 10,0 C 98 % 1008,1 hPa 0,0 l/m 0 min 2 min 0,0 UV-I 0 W/m 0,0 km/h (0 Bft)
07.11.2013 17:10 10,9 C 10,0 C 98 % 1008,1 hPa 0,0 l/m 0 min 2 min 0,0 UV-I 0 W/m 0,0 km/h (0 Bft)
07.11.2013 17:12 10,9 C 10,0 C 98 % 1008,1 hPa 0,0 l/m 0 min 2 min 0,0 UV-I 0 W/m 0,0 km/h (0 Bft)
07.11.2013 17:14 10,9 C 10,0 C 98 % 1008,1 hPa 0,0 l/m 0 min 2 min 0,0 UV-I 0 W/m 0,0 km/h (0 Bft)
07.11.2013 17:16 10,9 C 10,0 C 98 % 1008,2 hPa 0,0 l/m 0 min 2 min 0,0 UV-I 0 W/m 0,0 km/h (0 Bft)
07.11.2013 17:18 10,9 C 10,0 C 98 % 1008,1 hPa 0,0 l/m 0 min 2 min 0,0 UV-I 0 W/m 0,0 km/h (0 Bft)
07.11.2013 17:20 10,9 C 10,0 C 98 % 1008,1 hPa 0,0 l/m 0 min 2 min 0,0 UV-I 0 W/m 0,0 km/h (0 Bft)
07.11.2013 17:22 10,9 C 10,0 C 98 % 1008,1 hPa 0,0 l/m 0 min 2 min 0,0 UV-I 0 W/m 0,0 km/h (0 Bft)
07.11.2013 17:24 10,9 C 10,0 C 98 % 1008,2 hPa 0,0 l/m 0 min 2 min 0,0 UV-I 0 W/m 0,0 km/h (0 Bft)
07.11.2013 17:26 10,9 C 10,0 C 98 % 1008,1 hPa 0,0 l/m 0 min 2 min 0,0 UV-I 0 W/m 0,0 km/h (0 Bft)
07.11.2013 17:28 10,9 C 10,0 C 98 % 1008,2 hPa 0,0 l/m 0 min 2 min 0,0 UV-I 0 W/m 0,0 km/h (0 Bft)
07.11.2013 17:30 10,9 C 10,0 C 98 % 1008,2 hPa 0,0 l/m 0 min 2 min 0,0 UV-I 0 W/m 0,0 km/h (0 Bft)
07.11.2013 17:32 10,9 C 10,0 C 98 % 1008,2 hPa 0,0 l/m 0 min 2 min 0,0 UV-I 0 W/m 0,0 km/h (0 Bft)
07.11.2013 17:34 10,9 C 10,0 C 98 % 1008,2 hPa 0,0 l/m 0 min 2 min 0,0 UV-I 0 W/m 0,0 km/h (0 Bft)
07.11.2013 17:36 10,9 C 10,0 C 98 % 1008,2 hPa 0,2 l/m 0 min 2 min 0,0 UV-I 0 W/m 0,0 km/h (0 Bft)
07.11.2013 17:38 10,9 C 10,0 C 98 % 1008,2 hPa 0,0 l/m 0 min 2 min 0,0 UV-I 0 W/m 0,0 km/h (0 Bft)
07.11.2013 17:40 10,9 C 10,0 C 98 % 1008,3 hPa 0,0 l/m 0 min 2 min 0,0 UV-I 0 W/m 0,0 km/h (0 Bft)
07.11.2013 17:42 10,9 C 10,0 C 98 % 1008,4 hPa 0,0 l/m 0 min 2 min 0,0 UV-I 0 W/m 0,0 km/h (0 Bft)
07.11.2013 17:44 10,9 C 10,0 C 98 % 1008,4 hPa 0,0 l/m 0 min 2 min 0,0 UV-I 0 W/m 0,0 km/h (0 Bft)
07.11.2013 17:46 10,9 C 10,0 C 98 % 1008,3 hPa 0,0 l/m 0 min 2 min 0,0 UV-I 0 W/m 0,0 km/h (0 Bft)
07.11.2013 17:48 10,9 C 10,0 C 98 % 1008,3 hPa 0,0 l/m 0 min 2 min 0,0 UV-I 0 W/m 0,0 km/h (0 Bft)
07.11.2013 17:50 10,9 C 10,0 C 98 % 1008,3 hPa 0,2 l/m 0 min 2 min 0,0 UV-I 0 W/m 0,0 km/h (0 Bft)
07.11.2013 17:52 10,9 C 10,0 C 98 % 1008,3 hPa 0,0 l/m 0 min 2 min 0,0 UV-I 0 W/m 0,0 km/h (0 Bft)
07.11.2013 17:54 10,9 C 10,0 C 98 % 1008,3 hPa 0,0 l/m 0 min 2 min 0,0 UV-I 0 W/m 0,0 km/h (0 Bft)
07.11.2013 17:56 10,9 C 10,0 C 98 % 1008,4 hPa 0,0 l/m 0 min 2 min 0,0 UV-I 0 W/m 0,0 km/h (0 Bft)
07.11.2013 17:58 10,9 C 10,0 C 98 % 1008,3 hPa 0,0 l/m 0 min 2 min 0,0 UV-I 0 W/m 0,0 km/h (0 Bft)
07.11.2013 18:00 10,9 C 10,0 C 98 % 1008,3 hPa 0,0 l/m 0 min 2 min 0,0 UV-I 0 W/m 0,0 km/h (0 Bft)
07.11.2013 18:02 10,9 C 10,0 C 98 % 1008,2 hPa 0,0 l/m 0 min 2 min 0,0 UV-I 0 W/m 0,0 km/h (0 Bft)
07.11.2013 18:06 10,9 C 10,0 C 98 % 1008,2 hPa 0,0 l/m 0 min 2 min 0,0 UV-I 0 W/m 0,0 km/h (0 Bft)
07.11.2013 18:08 10,9 C 10,0 C 98 % 1008,3 hPa 0,0 l/m 0 min 2 min 0,0 UV-I 0 W/m 0,0 km/h (0 Bft)
07.11.2013 18:10 10,9 C 10,0 C 98 % 1008,2 hPa 0,0 l/m 0 min 2 min 0,0 UV-I 0 W/m 0,0 km/h (0 Bft)
07.11.2013 18:12 10,9 C 10,0 C 98 % 1008,1 hPa 0,0 l/m 0 min 2 min 0,0 UV-I 0 W/m 0,0 km/h (0 Bft)
07.11.2013 18:14 10,9 C 10,0 C 98 % 1008,1 hPa 0,0 l/m 0 min 2 min 0,0 UV-I 0 W/m 0,0 km/h (0 Bft)
07.11.2013 18:16 10,9 C 10,0 C 98 % 1008,1 hPa 0,0 l/m 0 min 2 min 0,0 UV-I 0 W/m 0,0 km/h (0 Bft)
07.11.2013 18:18 10,9 C 10,0 C 98 % 1008,1 hPa 0,0 l/m 0 min 2 min 0,0 UV-I 0 W/m 0,0 km/h (0 Bft)
07.11.2013 18:20 10,9 C 10,0 C 98 % 1008,1 hPa 0,0 l/m 0 min 0 min 0,0 UV-I 0 W/m 0,0 km/h (0 Bft)
07.11.2013 18:22 10,8 C 10,0 C 98 % 1008,0 hPa 0,0 l/m 0 min 0 min 0,0 UV-I 0 W/m 0,0 km/h (0 Bft)
07.11.2013 18:24 10,9 C 10,0 C 98 % 1008,1 hPa 0,0 l/m 0 min 2 min 0,0 UV-I 0 W/m 0,0 km/h (0 Bft)
07.11.2013 18:26 10,8 C 9,4 C 98 % 1008,1 hPa 0,0 l/m 0 min 2 min 0,0 UV-I 0 W/m 0,0 km/h (0 Bft)
07.11.2013 18:28 10,8 C 9,4 C 98 % 1008,1 hPa 0,0 l/m 0 min 2 min 0,0 UV-I 0 W/m 0,0 km/h (0 Bft)
07.11.2013 18:30 10,8 C 9,4 C 98 % 1008,1 hPa 0,0 l/m 0 min 2 min 0,0 UV-I 0 W/m 0,0 km/h (0 Bft)
07.11.2013 18:32 10,8 C 9,4 C 98 % 1008,1 hPa 0,0 l/m 0 min 2 min 0,0 UV-I 0 W/m 0,0 km/h (0 Bft)
07.11.2013 18:34 10,8 C 9,4 C 98 % 1008,2 hPa 0,2 l/m 0 min 2 min 0,0 UV-I 0 W/m 0,0 km/h (0 Bft)
07.11.2013 18:36 10,8 C 9,4 C 98 % 1008,3 hPa 0,0 l/m 0 min 2 min 0,0 UV-I 0 W/m 0,0 km/h (0 Bft)
07.11.2013 18:38 10,8 C 9,4 C 98 % 1008,3 hPa 0,0 l/m 0 min 2 min 0,0 UV-I 0 W/m 0,0 km/h (0 Bft)
07.11.2013 18:40 10,8 C 9,4 C 98 % 1008,3 hPa 0,0 l/m 0 min 2 min 0,0 UV-I 0 W/m 0,0 km/h (0 Bft)
07.11.2013 18:42 10,8 C 9,4 C 98 % 1008,3 hPa 0,2 l/m 0 min 2 min 0,0 UV-I 0 W/m 0,0 km/h (0 Bft)
07.11.2013 18:44 10,8 C 9,4 C 98 % 1008,3 hPa 0,0 l/m 0 min 2 min 0,0 UV-I 0 W/m 0,0 km/h (0 Bft)
07.11.2013 18:46 10,8 C 9,4 C 98 % 1008,3 hPa 0,0 l/m 0 min 2 min 0,0 UV-I 0 W/m 0,0 km/h (0 Bft)
07.11.2013 18:48 10,8 C 9,4 C 98 % 1008,3 hPa 0,0 l/m 0 min 2 min 0,0 UV-I 0 W/m 0,0 km/h (0 Bft)
07.11.2013 18:50 10,8 C 9,4 C 98 % 1008,4 hPa 0,0 l/m 0 min 2 min 0,0 UV-I 0 W/m 0,0 km/h (0 Bft)
07.11.2013 18:52 10,8 C 9,4 C 98 % 1008,4 hPa 0,0 l/m 0 min 2 min 0,0 UV-I 0 W/m 0,0 km/h (0 Bft)
07.11.2013 18:54 10,8 C 9,4 C 98 % 1008,5 hPa 0,0 l/m 0 min 2 min 0,0 UV-I 0 W/m 0,0 km/h (0 Bft)
07.11.2013 18:56 10,8 C 9,4 C 98 % 1008,4 hPa 0,0 l/m 0 min 2 min 0,0 UV-I 0 W/m 0,0 km/h (0 Bft)
07.11.2013 18:58 10,8 C 9,4 C 98 % 1008,3 hPa 0,0 l/m 0 min 2 min 0,0 UV-I 0 W/m 0,0 km/h (0 Bft)
07.11.2013 19:00 10,8 C 9,4 C 98 % 1008,3 hPa 0,0 l/m 0 min 2 min 0,0 UV-I 0 W/m 0,0 km/h (0 Bft)
07.11.2013 19:02 10,8 C 9,4 C 98 % 1008,5 hPa 0,0 l/m 0 min 2 min 0,0 UV-I 0 W/m 0,0 km/h (0 Bft)
07.11.2013 19:04 10,8 C 9,4 C 98 % 1008,6 hPa 0,0 l/m 0 min 2 min 0,0 UV-I 0 W/m 0,0 km/h (0 Bft)
07.11.2013 19:06 10,7 C 9,4 C 98 % 1008,6 hPa 0,0 l/m 0 min 2 min 0,0 UV-I 0 W/m 0,0 km/h (0 Bft)
07.11.2013 19:08 10,8 C 9,4 C 98 % 1008,7 hPa 0,2 l/m 0 min 2 min 0,0 UV-I 0 W/m 0,0 km/h (0 Bft)
07.11.2013 19:10 10,8 C 9,4 C 98 % 1008,6 hPa 0,0 l/m 0 min 2 min 0,0 UV-I 0 W/m 0,0 km/h (0 Bft)
07.11.2013 19:12 10,7 C 9,4 C 98 % 1008,6 hPa 0,2 l/m 0 min 2 min 0,0 UV-I 0 W/m 0,0 km/h (0 Bft)
07.11.2013 19:14 10,7 C 9,4 C 98 % 1008,6 hPa 0,0 l/m 0 min 2 min 0,0 UV-I 0 W/m 0,0 km/h (0 Bft)
07.11.2013 19:16 10,7 C 9,4 C 98 % 1008,6 hPa 0,0 l/m 0 min 2 min 0,0 UV-I 0 W/m 0,0 km/h (0 Bft)
07.11.2013 19:18 10,7 C 9,4 C 98 % 1008,5 hPa 0,0 l/m 0 min 2 min 0,0 UV-I 0 W/m 0,0 km/h (0 Bft)
07.11.2013 19:20 10,7 C 9,4 C 98 % 1008,6 hPa 0,0 l/m 0 min 2 min 0,0 UV-I 0 W/m 0,0 km/h (0 Bft)
07.11.2013 19:22 10,7 C 9,4 C 98 % 1008,5 hPa 0,0 l/m 0 min 2 min 0,0 UV-I 0 W/m 0,0 km/h (0 Bft)
07.11.2013 19:24 10,7 C 9,4 C 98 % 1008,6 hPa 0,0 l/m 0 min 2 min 0,0 UV-I 0 W/m 0,0 km/h (0 Bft)
07.11.2013 19:26 10,7 C 9,4 C 98 % 1008,5 hPa 0,2 l/m 0 min 2 min 0,0 UV-I 0 W/m 0,0 km/h (0 Bft)
07.11.2013 19:28 10,7 C 9,4 C 98 % 1008,6 hPa 0,0 l/m 0 min 2 min 0,0 UV-I 0 W/m 0,0 km/h (0 Bft)
07.11.2013 19:30 10,7 C 9,4 C 98 % 1008,5 hPa 0,2 l/m 0 min 2 min 0,0 UV-I 0 W/m 0,0 km/h (0 Bft)
07.11.2013 19:32 10,7 C 9,4 C 98 % 1008,4 hPa 0,0 l/m 0 min 2 min 0,0 UV-I 0 W/m 0,0 km/h (0 Bft)
07.11.2013 19:34 10,7 C 9,4 C 98 % 1008,4 hPa 0,0 l/m 0 min 2 min 0,0 UV-I 0 W/m 0,0 km/h (0 Bft)
07.11.2013 19:36 10,7 C 9,4 C 98 % 1008,4 hPa 0,0 l/m 0 min 2 min 0,0 UV-I 0 W/m 0,0 km/h (0 Bft)
07.11.2013 19:38 10,7 C 9,4 C 98 % 1008,5 hPa 0,0 l/m 0 min 2 min 0,0 UV-I 0 W/m 0,0 km/h (0 Bft)
07.11.2013 19:40 10,7 C 9,4 C 98 % 1008,6 hPa 0,0 l/m 0 min 2 min 0,0 UV-I 0 W/m 0,0 km/h (0 Bft)
07.11.2013 19:42 10,7 C 9,4 C 98 % 1008,6 hPa 0,2 l/m 0 min 2 min 0,0 UV-I 0 W/m 0,0 km/h (0 Bft)
07.11.2013 19:44 10,7 C 9,4 C 98 % 1008,7 hPa 0,0 l/m 0 min 2 min 0,0 UV-I 0 W/m 0,0 km/h (0 Bft)
07.11.2013 19:46 10,7 C 9,4 C 98 % 1008,6 hPa 0,0 l/m 0 min 2 min 0,0 UV-I 0 W/m 0,0 km/h (0 Bft)
07.11.2013 19:48 10,7 C 9,4 C 98 % 1008,5 hPa 0,0 l/m 0 min 2 min 0,0 UV-I 0 W/m 0,0 km/h (0 Bft)
07.11.2013 19:50 10,7 C 9,4 C 98 % 1008,4 hPa 0,2 l/m 0 min 2 min 0,0 UV-I 0 W/m 0,0 km/h (0 Bft)
07.11.2013 19:52 10,7 C 9,4 C 98 % 1008,3 hPa 0,0 l/m 0 min 2 min 0,0 UV-I 0 W/m 0,0 km/h (0 Bft)
07.11.2013 19:54 10,7 C 9,4 C 98 % 1008,3 hPa 0,0 l/m 0 min 2 min 0,0 UV-I 0 W/m 0,0 km/h (0 Bft)
07.11.2013 19:56 10,7 C 9,4 C 98 % 1008,3 hPa 0,0 l/m 0 min 2 min 0,0 UV-I 0 W/m 0,0 km/h (0 Bft)
07.11.2013 19:58 10,6 C 9,4 C 98 % 1008,2 hPa 0,0 l/m 0 min 2 min 0,0 UV-I 0 W/m 0,0 km/h (0 Bft)
07.11.2013 20:00 10,6 C 9,4 C 98 % 1008,3 hPa 0,0 l/m 0 min 2 min 0,0 UV-I 0 W/m 0,0 km/h (0 Bft)
07.11.2013 20:02 10,6 C 9,4 C 98 % 1008,2 hPa 0,2 l/m 0 min 2 min 0,0 UV-I 0 W/m 0,0 km/h (0 Bft)
07.11.2013 20:04 10,6 C 9,4 C 98 % 1008,2 hPa 0,0 l/m 0 min 2 min 0,0 UV-I 0 W/m 0,0 km/h (0 Bft)
07.11.2013 20:06 10,6 C 9,4 C 98 % 1008,2 hPa 0,0 l/m 0 min 2 min 0,0 UV-I 0 W/m 0,0 km/h (0 Bft)
07.11.2013 20:08 10,6 C 9,4 C 98 % 1008,2 hPa 0,0 l/m 0 min 2 min 0,0 UV-I 0 W/m 0,0 km/h (0 Bft)
07.11.2013 20:10 10,6 C 9,4 C 98 % 1008,2 hPa 0,2 l/m 0 min 2 min 0,0 UV-I 0 W/m 0,0 km/h (0 Bft)
07.11.2013 20:12 10,6 C 9,4 C 98 % 1008,2 hPa 0,0 l/m 0 min 2 min 0,0 UV-I 0 W/m 0,0 km/h (0 Bft)
07.11.2013 20:14 10,6 C 9,4 C 98 % 1008,2 hPa 0,0 l/m 0 min 2 min 0,0 UV-I 0 W/m 0,0 km/h (0 Bft)
07.11.2013 20:16 10,6 C 9,4 C 98 % 1008,1 hPa 0,0 l/m 0 min 2 min 0,0 UV-I 0 W/m 0,0 km/h (0 Bft)
07.11.2013 20:18 10,6 C 9,4 C 98 % 1008,1 hPa 0,0 l/m 0 min 2 min 0,0 UV-I 0 W/m 0,0 km/h (0 Bft)
07.11.2013 20:20 10,6 C 9,4 C 98 % 1008,1 hPa 0,0 l/m 0 min 2 min 0,0 UV-I 0 W/m 0,0 km/h (0 Bft)
07.11.2013 20:22 10,6 C 9,4 C 98 % 1008,2 hPa 0,0 l/m 0 min 2 min 0,0 UV-I 0 W/m 0,0 km/h (0 Bft)
07.11.2013 20:24 10,6 C 9,4 C 98 % 1008,2 hPa 0,0 l/m 0 min 2 min 0,0 UV-I 0 W/m 0,0 km/h (0 Bft)
07.11.2013 20:26 10,6 C 9,4 C 98 % 1008,2 hPa 0,0 l/m 0 min 2 min 0,0 UV-I 0 W/m 0,0 km/h (0 Bft)
07.11.2013 20:28 10,6 C 9,4 C 98 % 1008,2 hPa 0,0 l/m 0 min 2 min 0,0 UV-I 0 W/m 0,0 km/h (0 Bft)
07.11.2013 20:30 10,6 C 9,4 C 98 % 1008,2 hPa 0,0 l/m 0 min 2 min 0,0 UV-I 0 W/m 0,0 km/h (0 Bft)
07.11.2013 20:32 10,6 C 9,4 C 98 % 1008,2 hPa 0,0 l/m 0 min 2 min 0,0 UV-I 0 W/m 0,0 km/h (0 Bft)
07.11.2013 20:34 10,6 C 9,4 C 98 % 1008,2 hPa 0,0 l/m 0 min 2 min 0,0 UV-I 0 W/m 0,0 km/h (0 Bft)
07.11.2013 20:36 10,6 C 9,4 C 98 % 1008,2 hPa 0,0 l/m 0 min 2 min 0,0 UV-I 0 W/m 0,0 km/h (0 Bft)
07.11.2013 20:38 10,5 C 9,4 C 98 % 1008,2 hPa 0,0 l/m 0 min 2 min 0,0 UV-I 0 W/m 0,0 km/h (0 Bft)
07.11.2013 20:40 10,5 C 9,4 C 98 % 1008,3 hPa 0,2 l/m 0 min 2 min 0,0 UV-I 0 W/m 0,0 km/h (0 Bft)
07.11.2013 20:42 10,5 C 9,4 C 98 % 1008,2 hPa 0,0 l/m 0 min 2 min 0,0 UV-I 0 W/m 0,0 km/h (0 Bft)
07.11.2013 20:44 10,5 C 9,4 C 98 % 1008,2 hPa 0,0 l/m 0 min 2 min 0,0 UV-I 0 W/m 0,0 km/h (0 Bft)
07.11.2013 20:46 10,5 C 9,4 C 98 % 1008,2 hPa 0,0 l/m 0 min 2 min 0,0 UV-I 0 W/m 0,0 km/h (0 Bft)
07.11.2013 20:48 10,5 C 9,4 C 98 % 1008,2 hPa 0,0 l/m 0 min 2 min 0,0 UV-I 0 W/m 0,0 km/h (0 Bft)
07.11.2013 20:50 10,5 C 9,4 C 98 % 1008,1 hPa 0,0 l/m 0 min 2 min 0,0 UV-I 0 W/m 0,0 km/h (0 Bft)
07.11.2013 20:52 10,5 C 9,4 C 98 % 1008,1 hPa 0,0 l/m 0 min 2 min 0,0 UV-I 0 W/m 0,0 km/h (0 Bft)
07.11.2013 20:54 10,5 C 9,4 C 98 % 1007,9 hPa 0,2 l/m 0 min 2 min 0,0 UV-I 0 W/m 0,0 km/h (0 Bft)
07.11.2013 20:56 10,5 C 9,4 C 98 % 1008,0 hPa 0,0 l/m 0 min 2 min 0,0 UV-I 0 W/m 0,0 km/h (0 Bft)
07.11.2013 20:58 10,5 C 9,4 C 98 % 1007,9 hPa 0,0 l/m 0 min 2 min 0,0 UV-I 0 W/m 0,0 km/h (0 Bft)
07.11.2013 21:00 10,5 C 9,4 C 98 % 1008,0 hPa 0,0 l/m 0 min 2 min 0,0 UV-I 0 W/m 0,0 km/h (0 Bft)
07.11.2013 21:02 10,5 C 9,4 C 98 % 1007,9 hPa 0,0 l/m 0 min 0 min 0,0 UV-I 0 W/m 0,0 km/h (0 Bft)
07.11.2013 21:04 10,5 C 9,4 C 98 % 1007,9 hPa 0,0 l/m 0 min 2 min 0,0 UV-I 0 W/m 0,0 km/h (0 Bft)
07.11.2013 21:06 10,5 C 9,4 C 98 % 1008,0 hPa 0,0 l/m 0 min 2 min 0,0 UV-I 0 W/m 0,0 km/h (0 Bft)
07.11.2013 21:08 10,5 C 9,4 C 98 % 1008,0 hPa 0,0 l/m 0 min 2 min 0,0 UV-I 0 W/m 0,0 km/h (0 Bft)
07.11.2013 21:10 10,5 C 9,4 C 98 % 1008,0 hPa 0,0 l/m 0 min 2 min 0,0 UV-I 0 W/m 0,0 km/h (0 Bft)
07.11.2013 21:12 10,5 C 9,4 C 98 % 1008,1 hPa 0,0 l/m 0 min 2 min 0,0 UV-I 0 W/m 0,0 km/h (0 Bft)
07.11.2013 21:14 10,5 C 9,4 C 98 % 1008,1 hPa 0,0 l/m 0 min 2 min 0,0 UV-I 0 W/m 0,0 km/h (0 Bft)
07.11.2013 21:16 10,5 C 9,4 C 98 % 1008,2 hPa 0,0 l/m 0 min 2 min 0,0 UV-I 0 W/m 0,0 km/h (0 Bft)
07.11.2013 21:18 10,5 C 9,4 C 98 % 1008,2 hPa 0,0 l/m 0 min 2 min 0,0 UV-I 0 W/m 0,0 km/h (0 Bft)
07.11.2013 21:20 10,4 C 9,4 C 98 % 1008,2 hPa 0,0 l/m 0 min 2 min 0,0 UV-I 0 W/m 0,0 km/h (0 Bft)
07.11.2013 21:22 10,4 C 9,4 C 98 % 1008,1 hPa 0,2 l/m 0 min 2 min 0,0 UV-I 0 W/m 0,0 km/h (0 Bft)
07.11.2013 21:24 10,4 C 9,4 C 98 % 1008,0 hPa 0,0 l/m 0 min 2 min 0,0 UV-I 0 W/m 0,0 km/h (0 Bft)
07.11.2013 21:26 10,4 C 9,4 C 98 % 1008,0 hPa 0,0 l/m 0 min 2 min 0,0 UV-I 0 W/m 0,0 km/h (0 Bft)
07.11.2013 21:28 10,4 C 9,4 C 98 % 1008,0 hPa 0,0 l/m 0 min 2 min 0,0 UV-I 0 W/m 0,0 km/h (0 Bft)
07.11.2013 21:30 10,4 C 9,4 C 98 % 1007,9 hPa 0,0 l/m 0 min 2 min 0,0 UV-I 0 W/m 0,0 km/h (0 Bft)
07.11.2013 21:32 10,4 C 9,4 C 98 % 1007,8 hPa 0,0 l/m 0 min 2 min 0,0 UV-I 0 W/m 0,0 km/h (0 Bft)
07.11.2013 21:34 10,4 C 9,4 C 98 % 1007,8 hPa 0,0 l/m 0 min 2 min 0,0 UV-I 0 W/m 0,0 km/h (0 Bft)
07.11.2013 21:36 10,4 C 9,4 C 98 % 1007,8 hPa 0,0 l/m 0 min 2 min 0,0 UV-I 0 W/m 0,0 km/h (0 Bft)
07.11.2013 21:38 10,4 C 9,4 C 98 % 1007,8 hPa 0,0 l/m 0 min 2 min 0,0 UV-I 0 W/m 0,0 km/h (0 Bft)
07.11.2013 21:40 10,4 C 9,4 C 98 % 1007,9 hPa 0,0 l/m 0 min 2 min 0,0 UV-I 0 W/m 0,0 km/h (0 Bft)
07.11.2013 21:42 10,4 C 9,4 C 98 % 1007,9 hPa 0,0 l/m 0 min 2 min 0,0 UV-I 0 W/m 0,0 km/h (0 Bft)
07.11.2013 21:44 10,4 C 9,4 C 98 % 1008,1 hPa 0,0 l/m 0 min 2 min 0,0 UV-I 0 W/m 0,0 km/h (0 Bft)
07.11.2013 21:46 10,4 C 9,4 C 98 % 1008,1 hPa 0,0 l/m 0 min 2 min 0,0 UV-I 0 W/m 0,0 km/h (0 Bft)
07.11.2013 21:48 10,4 C 9,4 C 98 % 1008,1 hPa 0,2 l/m 0 min 2 min 0,0 UV-I 0 W/m 0,0 km/h (0 Bft)
07.11.2013 21:50 10,4 C 9,4 C 98 % 1008,2 hPa 0,0 l/m 0 min 2 min 0,0 UV-I 0 W/m 0,0 km/h (0 Bft)
07.11.2013 21:52 10,4 C 9,4 C 98 % 1008,2 hPa 0,0 l/m 0 min 2 min 0,0 UV-I 0 W/m 0,0 km/h (0 Bft)
07.11.2013 21:54 10,3 C 9,4 C 98 % 1008,1 hPa 0,0 l/m 0 min 2 min 0,0 UV-I 0 W/m 0,0 km/h (0 Bft)
07.11.2013 21:56 10,3 C 9,4 C 98 % 1008,2 hPa 0,0 l/m 0 min 2 min 0,0 UV-I 0 W/m 0,0 km/h (0 Bft)
07.11.2013 21:58 10,3 C 9,4 C 98 % 1008,2 hPa 0,0 l/m 0 min 2 min 0,0 UV-I 0 W/m 0,0 km/h (0 Bft)
07.11.2013 22:00 10,3 C 9,4 C 98 % 1008,2 hPa 0,0 l/m 0 min 2 min 0,0 UV-I 0 W/m 0,0 km/h (0 Bft)
07.11.2013 22:02 10,3 C 9,4 C 98 % 1008,2 hPa 0,0 l/m 0 min 2 min 0,0 UV-I 0 W/m 0,0 km/h (0 Bft)
07.11.2013 22:04 10,3 C 9,4 C 98 % 1008,2 hPa 0,2 l/m 0 min 2 min 0,0 UV-I 0 W/m 0,0 km/h (0 Bft)
07.11.2013 22:06 10,3 C 9,4 C 98 % 1008,3 hPa 0,0 l/m 0 min 2 min 0,0 UV-I 0 W/m 0,0 km/h (0 Bft)
07.11.2013 22:08 10,3 C 9,4 C 98 % 1008,3 hPa 0,0 l/m 0 min 2 min 0,0 UV-I 0 W/m 0,0 km/h (0 Bft)
07.11.2013 22:10 10,3 C 9,4 C 98 % 1008,4 hPa 0,0 l/m 0 min 2 min 0,0 UV-I 0 W/m 0,0 km/h (0 Bft)
07.11.2013 22:12 10,3 C 9,4 C 98 % 1008,5 hPa 0,0 l/m 0 min 2 min 0,0 UV-I 0 W/m 0,0 km/h (0 Bft)
07.11.2013 22:14 10,3 C 9,4 C 98 % 1008,5 hPa 0,0 l/m 0 min 2 min 0,0 UV-I 0 W/m 0,0 km/h (0 Bft)
07.11.2013 22:16 10,3 C 9,4 C 98 % 1008,5 hPa 0,0 l/m 0 min 2 min 0,0 UV-I 0 W/m 0,0 km/h (0 Bft)
07.11.2013 22:18 10,3 C 9,4 C 98 % 1008,4 hPa 0,0 l/m 0 min 2 min 0,0 UV-I 0 W/m 0,0 km/h (0 Bft)
07.11.2013 22:20 10,3 C 9,4 C 98 % 1008,4 hPa 0,2 l/m 0 min 2 min 0,0 UV-I 0 W/m 0,0 km/h (0 Bft)
07.11.2013 22:22 10,3 C 9,4 C 98 % 1008,3 hPa 0,0 l/m 0 min 2 min 0,0 UV-I 0 W/m 0,0 km/h (0 Bft)
07.11.2013 22:24 10,3 C 9,4 C 98 % 1008,3 hPa 0,0 l/m 0 min 2 min 0,0 UV-I 0 W/m 0,0 km/h (0 Bft)
07.11.2013 22:26 10,3 C 9,4 C 98 % 1008,3 hPa 0,0 l/m 0 min 2 min 0,0 UV-I 0 W/m 0,0 km/h (0 Bft)
07.11.2013 22:28 10,3 C 9,4 C 98 % 1008,3 hPa 0,2 l/m 0 min 2 min 0,0 UV-I 0 W/m 0,0 km/h (0 Bft)
07.11.2013 22:30 10,3 C 9,4 C 98 % 1008,3 hPa 0,0 l/m 0 min 2 min 0,0 UV-I 0 W/m 0,0 km/h (0 Bft)
07.11.2013 22:32 10,3 C 9,4 C 98 % 1008,2 hPa 0,2 l/m 0 min 2 min 0,0 UV-I 0 W/m 0,0 km/h (0 Bft)
07.11.2013 22:34 10,3 C 9,4 C 98 % 1008,3 hPa 0,0 l/m 0 min 2 min 0,0 UV-I 0 W/m 0,0 km/h (0 Bft)
07.11.2013 22:36 10,3 C 9,4 C 98 % 1008,2 hPa 0,0 l/m 0 min 2 min 0,0 UV-I 0 W/m 0,0 km/h (0 Bft)
07.11.2013 22:38 10,3 C 9,4 C 98 % 1008,3 hPa 0,0 l/m 0 min 2 min 0,0 UV-I 0 W/m 0,0 km/h (0 Bft)
07.11.2013 22:40 10,3 C 9,4 C 98 % 1008,3 hPa 0,2 l/m 0 min 2 min 0,0 UV-I 0 W/m 0,0 km/h (0 Bft)
07.11.2013 22:42 10,3 C 9,4 C 99 % 1008,3 hPa 0,0 l/m 0 min 2 min 0,0 UV-I 0 W/m 0,0 km/h (0 Bft)
07.11.2013 22:44 10,3 C 9,4 C 99 % 1008,3 hPa 0,0 l/m 0 min 2 min 0,0 UV-I 0 W/m 0,0 km/h (0 Bft)
07.11.2013 22:46 10,3 C 9,4 C 99 % 1008,2 hPa 0,0 l/m 0 min 2 min 0,0 UV-I 0 W/m 0,0 km/h (0 Bft)
07.11.2013 22:48 10,3 C 8,9 C 99 % 1008,2 hPa 0,0 l/m 0 min 2 min 0,0 UV-I 0 W/m 0,0 km/h (0 Bft)
07.11.2013 22:50 10,3 C 8,9 C 98 % 1008,2 hPa 0,0 l/m 0 min 2 min 0,0 UV-I 0 W/m 0,0 km/h (0 Bft)
07.11.2013 22:52 10,3 C 8,9 C 98 % 1008,2 hPa 0,0 l/m 0 min 2 min 0,0 UV-I 0 W/m 0,0 km/h (0 Bft)
07.11.2013 22:54 10,2 C 8,9 C 98 % 1008,2 hPa 0,0 l/m 0 min 2 min 0,0 UV-I 0 W/m 0,0 km/h (0 Bft)
07.11.2013 22:56 10,2 C 8,9 C 98 % 1008,1 hPa 0,2 l/m 0 min 2 min 0,0 UV-I 0 W/m 0,0 km/h (0 Bft)
07.11.2013 22:58 10,2 C 8,9 C 98 % 1008,0 hPa 0,0 l/m 0 min 2 min 0,0 UV-I 0 W/m 0,0 km/h (0 Bft)
07.11.2013 23:00 10,2 C 8,9 C 98 % 1008,0 hPa 0,0 l/m 0 min 2 min 0,0 UV-I 0 W/m 0,0 km/h (0 Bft)
07.11.2013 23:02 10,2 C 8,9 C 98 % 1007,9 hPa 0,2 l/m 0 min 2 min 0,0 UV-I 0 W/m 0,0 km/h (0 Bft)
07.11.2013 23:04 10,2 C 8,9 C 98 % 1007,9 hPa 0,0 l/m 0 min 2 min 0,0 UV-I 0 W/m 0,0 km/h (0 Bft)
07.11.2013 23:06 10,1 C 8,9 C 98 % 1007,9 hPa 0,0 l/m 0 min 2 min 0,0 UV-I 0 W/m 0,0 km/h (0 Bft)
07.11.2013 23:08 10,1 C 8,9 C 98 % 1007,9 hPa 0,0 l/m 0 min 2 min 0,0 UV-I 0 W/m 0,0 km/h (0 Bft)
07.11.2013 23:10 10,1 C 8,9 C 98 % 1007,9 hPa 0,0 l/m 0 min 2 min 0,0 UV-I 0 W/m 0,0 km/h (0 Bft)
07.11.2013 23:12 10,1 C 8,9 C 98 % 1007,9 hPa 0,0 l/m 0 min 2 min 0,0 UV-I 0 W/m 0,0 km/h (0 Bft)
07.11.2013 23:14 10,1 C 8,9 C 98 % 1007,8 hPa 0,0 l/m 0 min 2 min 0,0 UV-I 0 W/m 0,0 km/h (0 Bft)
07.11.2013 23:16 10,1 C 8,9 C 98 % 1007,8 hPa 0,0 l/m 0 min 2 min 0,0 UV-I 0 W/m 0,0 km/h (0 Bft)
07.11.2013 23:18 10,1 C 8,9 C 98 % 1007,8 hPa 0,0 l/m 0 min 2 min 0,0 UV-I 0 W/m 0,0 km/h (0 Bft)
07.11.2013 23:20 10,1 C 8,9 C 98 % 1007,9 hPa 0,0 l/m 0 min 2 min 0,0 UV-I 0 W/m 0,0 km/h (0 Bft)
07.11.2013 23:22 10,1 C 8,9 C 98 % 1007,9 hPa 0,0 l/m 0 min 2 min 0,0 UV-I 0 W/m 0,0 km/h (0 Bft)
07.11.2013 23:24 10,0 C 8,9 C 98 % 1008,0 hPa 0,0 l/m 0 min 2 min 0,0 UV-I 0 W/m 0,0 km/h (0 Bft)
07.11.2013 23:26 10,0 C 8,9 C 98 % 1008,2 hPa 0,0 l/m 0 min 2 min 0,0 UV-I 0 W/m 0,0 km/h (0 Bft)
07.11.2013 23:28 10,0 C 8,9 C 98 % 1008,2 hPa 0,0 l/m 0 min 2 min 0,0 UV-I 0 W/m 0,0 km/h (0 Bft)
07.11.2013 23:30 10,0 C 8,9 C 98 % 1008,0 hPa 0,0 l/m 0 min 2 min 0,0 UV-I 0 W/m 0,0 km/h (0 Bft)
07.11.2013 23:32 10,0 C 8,9 C 98 % 1007,9 hPa 0,0 l/m 0 min 2 min 0,0 UV-I 0 W/m 0,0 km/h (0 Bft)
07.11.2013 23:34 10,0 C 8,9 C 98 % 1007,9 hPa 0,2 l/m 0 min 2 min 0,0 UV-I 0 W/m 0,0 km/h (0 Bft)
07.11.2013 23:36 10,0 C 8,9 C 98 % 1007,9 hPa 0,0 l/m 0 min 2 min 0,0 UV-I 0 W/m 0,0 km/h (0 Bft)
07.11.2013 23:38 9,9 C 8,9 C 98 % 1007,8 hPa 0,0 l/m 0 min 2 min 0,0 UV-I 0 W/m 0,0 km/h (0 Bft)
07.11.2013 23:40 9,9 C 8,9 C 98 % 1007,8 hPa 0,0 l/m 0 min 2 min 0,0 UV-I 0 W/m 0,0 km/h (0 Bft)
07.11.2013 23:42 9,9 C 8,9 C 98 % 1007,9 hPa 0,2 l/m 0 min 2 min 0,0 UV-I 0 W/m 0,0 km/h (0 Bft)
07.11.2013 23:44 9,9 C 8,9 C 98 % 1007,9 hPa 0,0 l/m 0 min 2 min 0,0 UV-I 0 W/m 0,0 km/h (0 Bft)
07.11.2013 23:46 9,9 C 8,9 C 98 % 1008,0 hPa 0,0 l/m 0 min 2 min 0,0 UV-I 0 W/m 0,0 km/h (0 Bft)
07.11.2013 23:48 9,9 C 8,9 C 98 % 1007,8 hPa 0,0 l/m 0 min 2 min 0,0 UV-I 0 W/m 0,0 km/h (0 Bft)
07.11.2013 23:50 9,9 C 8,9 C 98 % 1007,8 hPa 0,0 l/m 0 min 2 min 0,0 UV-I 0 W/m 0,0 km/h (0 Bft)
07.11.2013 23:52 9,9 C 8,9 C 98 % 1007,9 hPa 0,0 l/m 0 min 2 min 0,0 UV-I 0 W/m 0,0 km/h (0 Bft)
07.11.2013 23:54 9,9 C 8,9 C 99 % 1007,8 hPa 0,0 l/m 0 min 2 min 0,0 UV-I 0 W/m 0,0 km/h (0 Bft)
07.11.2013 23:56 9,9 C 8,9 C 98 % 1008,0 hPa 0,0 l/m 0 min 2 min 0,0 UV-I 0 W/m 0,0 km/h (0 Bft)
07.11.2013 23:58 9,9 C 8,9 C 98 % 1008,1 hPa 0,0 l/m 0 min 2 min 0,0 UV-I 0 W/m 0,0 km/h (0 Bft)
_ Min-Zeit 23:36 22:48 01:48 02:40 - - - - - 10:22
Minimum _ 9,9 C 8,9 C 86 % 1002,0 hPa - - - - - 0,0 km/h (0 Bft)
_ Max-Zeit 02:02 00:58 15:24 19:08 10:14 00:00 06:10 00:00 12:42 01:40
Maximum _ 14,7 C 12,8 C 99 % 1008,7 hPa 0,6 l/m 0 min 2 min 0,0 UV-I 93 W/m 46,3 km/h
W (6 Bft)
Durchschnitt _ 12,4 C 11,0 C 95 % 1005,7 hPa #10,4 l/m #0 min. #14:18 h 0,0 UV-I 41 W/m 9,3 km/h (2 Bft)
© 2013 W. Hausmann